UAE221 OMDB-KDFW

Flight info

Callsign UAE221
Flight time N/A
Altitude 26000
Route ANVIX DCT GIDIS G783 RIGIL/N0500F280 M628 PEKEM DCT GOLGU M550 RIBOT DCT RAPMA DCT LUGEB/N0496F300 DCT RILAS DCT BADOR DCT PITOK DCT MAKAL DCT LEGAZ DCT DEKOV DCT KUMER DCT HMM L602 AMGOD/N0490F320 L602 NALAX L46 GETNO DCT IOM DCT MOLAK DCT NETKI DCT RESNO/M085F330 DCT 56N020W 57N030W 57N040W 56N050W DCT JANJO/N0484F340 N714B YBC DCT KAVMU DCT IGSAS DCT MESDO DCT DESKI DCT MEDAV DCT DJB/N0482F360 DCT KLYNE DCT PLASH DCT EMBRR DCT HILTS DCT PROWL DCT FLP DCT FSM DCT KOMMA DCT RRNET SEEVR4
Aircraft B77W/H-SDE1E2E3FGHIJ2J3J4J5M1RWXY/LB1D1

Departure

Time 2026-04-25 23:46
Airport Dubai International Airport (OMDB)

Arrival

Time N/A
Airport Dallas Fort Worth International Airport (KDFW)
Time Latitude Longitude Altitude Speed Heading
2026-04-25 23:15 25.25095 55.35928 27 ft 0 kts 211°
2026-04-25 23:39 25.25107 55.35936 26 ft 4 kts 211°
2026-04-25 23:39 25.25130 55.35951 25 ft 4 kts 218°
2026-04-25 23:39 25.25148 55.35973 25 ft 4 kts 243°
2026-04-25 23:40 25.25156 55.36000 26 ft 4 kts 274°
2026-04-25 23:40 25.25152 55.36019 24 ft 0 kts 302°
2026-04-25 23:42 25.25155 55.36013 24 ft 6 kts 301°
2026-04-25 23:43 25.25200 55.35935 27 ft 14 kts 302°
2026-04-25 23:43 25.25252 55.35843 27 ft 14 kts 302°
2026-04-25 23:43 25.25304 55.35751 27 ft 14 kts 302°
2026-04-25 23:43 25.25381 55.35697 27 ft 14 kts
2026-04-25 23:44 25.25468 55.35744 27 ft 14 kts 30°
2026-04-25 23:44 25.25553 55.35800 27 ft 14 kts 31°
2026-04-25 23:44 25.25583 55.35893 27 ft 14 kts 105°
2026-04-25 23:44 25.25524 55.36005 27 ft 25 kts 121°
2026-04-25 23:45 25.25364 55.36295 27 ft 73 kts 121°
2026-04-25 23:45 25.25031 55.36896 27 ft 116 kts 121°
2026-04-25 23:45 25.24478 55.37890 27 ft 184 kts 121°
2026-04-25 23:45 25.23766 55.39154 138 ft 200 kts 123°
2026-04-25 23:46 25.23008 55.40474 651 ft 211 kts 122°
2026-04-25 23:46 25.22232 55.41890 1201 ft 219 kts 120°
2026-04-25 23:46 25.21422 55.43362 1716 ft 229 kts 120°
2026-04-25 23:46 25.20578 55.44885 2247 ft 236 kts 120°
2026-04-25 23:47 25.19702 55.46456 2762 ft 245 kts 121°
2026-04-25 23:47 25.18785 55.48095 3204 ft 255 kts 121°
2026-04-25 23:47 25.17842 55.49773 3559 ft 261 kts 121°
2026-04-25 23:47 25.16874 55.51494 4096 ft 264 kts 121°
2026-04-25 23:48 25.15886 55.53252 4624 ft 276 kts 121°
2026-04-25 23:48 25.14850 55.55092 5142 ft 285 kts 121°
2026-04-25 23:48 25.13797 55.56962 5646 ft 287 kts 121°
2026-04-25 23:48 25.12743 55.58832 6114 ft 287 kts 121°
2026-04-25 23:49 25.11687 55.60705 6590 ft 287 kts 122°
2026-04-25 23:49 25.10521 55.62478 7014 ft 286 kts 133°
2026-04-25 23:49 25.09117 55.64051 7472 ft 290 kts 137°
2026-04-25 23:49 25.07630 55.65600 7856 ft 297 kts 137°
2026-04-25 23:50 25.06136 55.67167 8225 ft 303 kts 138°
2026-04-25 23:50 25.04584 55.68828 8639 ft 319 kts 137°
2026-04-25 23:50 25.02961 55.70590 9082 ft 333 kts 137°
2026-04-25 23:50 25.01294 55.72422 9468 ft 340 kts 137°
2026-04-25 23:51 24.99628 55.74266 9825 ft 339 kts 137°
2026-04-25 23:51 24.97962 55.76110 10162 ft 339 kts 137°
2026-04-25 23:51 24.96293 55.77955 10512 ft 340 kts 137°
2026-04-25 23:51 24.94604 55.79785 10856 ft 339 kts 141°
2026-04-25 23:52 24.92649 55.81213 11144 ft 339 kts 159°
2026-04-25 23:52 24.90437 55.82163 11621 ft 345 kts 162°
2026-04-25 23:52 24.88187 55.83081 11973 ft 352 kts 161°
2026-04-25 23:52 24.85906 55.84090 12351 ft 354 kts 159°
2026-04-25 23:53 24.83804 55.85516 12662 ft 361 kts 136°
2026-04-25 23:53 24.82283 55.87718 13080 ft 360 kts 124°
2026-04-25 23:53 24.80929 55.90033 13464 ft 360 kts 125°
2026-04-25 23:53 24.79389 55.92200 13804 ft 361 kts 142°
2026-04-25 23:54 24.77197 55.93497 14155 ft 360 kts 169°
2026-04-25 23:54 24.74717 55.93746 14557 ft 359 kts 183°
2026-04-25 23:54 24.72207 55.93618 14948 ft 362 kts 185°
2026-04-25 23:54 24.69694 55.93469 15282 ft 361 kts 184°
2026-04-25 23:55 24.67166 55.93417 15669 ft 366 kts 182°
2026-04-25 23:55 24.64607 55.93395 16042 ft 370 kts 182°
2026-04-25 23:55 24.62028 55.93301 16404 ft 370 kts 187°
2026-04-25 23:55 24.59542 55.92759 16702 ft 362 kts 204°
2026-04-25 23:56 24.57450 55.91280 17077 ft 358 kts 226°
2026-04-25 23:56 24.55778 55.89302 17503 ft 358 kts 227°
2026-04-25 23:56 24.54003 55.87363 17897 ft 363 kts 223°
2026-04-25 23:56 24.52086 55.85513 18293 ft 371 kts 221°
2026-04-25 23:57 24.50102 55.83674 18657 ft 372 kts 221°
2026-04-25 23:57 24.48135 55.81850 18977 ft 368 kts 221°
2026-04-25 23:57 24.46192 55.80024 19313 ft 367 kts 222°
2026-04-25 23:57 24.44258 55.78182 19671 ft 369 kts 222°
2026-04-25 23:58 24.42321 55.76323 20020 ft 371 kts 223°
2026-04-25 23:58 24.40378 55.74456 20375 ft 372 kts 223°
2026-04-25 23:58 24.38421 55.72577 20756 ft 377 kts 223°
2026-04-25 23:58 24.36434 55.70669 21131 ft 382 kts 223°
2026-04-25 23:59 24.34428 55.68734 21525 ft 386 kts 223°
2026-04-25 23:59 24.32400 55.66774 21904 ft 391 kts 223°
2026-04-25 23:59 24.30350 55.64794 22303 ft 395 kts 223°
2026-04-25 23:59 24.28263 55.62831 22666 ft 394 kts 220°
2026-04-26 00:00 24.26005 55.61148 23011 ft 394 kts 211°
2026-04-26 00:00 24.23482 55.59904 23431 ft 400 kts 204°
2026-04-26 00:00 24.20806 55.59002 23778 ft 404 kts 199°
2026-04-26 00:00 24.18072 55.58263 24111 ft 406 kts 198°
2026-04-26 00:01 24.15348 55.57548 24438 ft 407 kts 198°
2026-04-26 00:01 24.12597 55.56781 24771 ft 408 kts 199°
2026-04-26 00:01 24.09868 55.55942 25106 ft 407 kts 200°
2026-04-26 00:01 24.07150 55.55064 25448 ft 407 kts 200°
2026-04-26 00:02 24.04423 55.54210 25789 ft 407 kts 199°
2026-04-26 00:02 24.01689 55.53389 26133 ft 407 kts 199°
2026-04-26 00:02 23.98956 55.52585 26476 ft 406 kts 199°
2026-04-26 00:02 23.96226 55.51779 26831 ft 405 kts 199°
2026-04-26 00:03 23.93515 55.50975 27186 ft 403 kts 199°
2026-04-26 00:03 23.90812 55.50171 27538 ft 401 kts 199°
2026-04-26 00:03 23.88132 55.49373 27894 ft 398 kts 199°
2026-04-26 00:03 23.85467 55.48580 28256 ft 397 kts 199°
2026-04-26 00:04 23.82805 55.47788 28626 ft 395 kts 199°
2026-04-26 00:04 23.80159 55.47000 28992 ft 393 kts 199°
2026-04-26 00:04 23.77526 55.46215 29369 ft 391 kts 199°
2026-04-26 00:04 23.74898 55.45431 29630 ft 392 kts 199°
2026-04-26 00:05 23.72245 55.44639 29689 ft 398 kts 199°
2026-04-26 00:05 23.66896 55.43045 30000 ft 402 kts 199°
2026-04-26 00:05 23.64201 55.42244 30246 ft 402 kts 199°
2026-04-26 00:06 23.61496 55.41441 30356 ft 405 kts 199°
2026-04-26 00:06 23.56013 55.39811 30589 ft 410 kts 199°
2026-04-26 00:06 23.53262 55.38995 30794 ft 410 kts 199°
2026-04-26 00:07 23.50504 55.38176 30909 ft 413 kts 199°
2026-04-26 00:07 23.45817 55.36793 30986 ft 420 kts 199°
2026-04-26 00:08 23.40140 55.35122 30989 ft 431 kts 198°
2026-04-26 00:08 23.34266 55.33395 30997 ft 443 kts 198°
2026-04-26 00:09 23.28223 55.31621 31029 ft 454 kts 198°
2026-04-26 00:09 23.22047 55.29809 31098 ft 465 kts 198°
2026-04-26 00:10 23.15741 55.27959 31188 ft 474 kts 198°
2026-04-26 00:10 23.09348 55.26069 31239 ft 479 kts 200°
2026-04-26 00:10 23.06361 55.24561 31218 ft 473 kts 219°
2026-04-26 00:11 23.03983 55.22126 31272 ft 470 kts 234°
2026-04-26 00:11 23.02213 55.19146 31332 ft 471 kts 245°
2026-04-26 00:11 23.01055 55.15828 31340 ft 471 kts 257°
2026-04-26 00:12 22.99890 55.08803 31434 ft 473 kts 262°
2026-04-26 00:12 22.98769 55.01834 31464 ft 469 kts 258°
2026-04-26 00:13 22.97273 54.94898 31538 ft 475 kts 257°
2026-04-26 00:13 22.95760 54.87877 31602 ft 479 kts 258°
2026-04-26 00:14 22.94326 54.80792 31680 ft 481 kts 258°
2026-04-26 00:14 22.92928 54.73694 31732 ft 481 kts 258°
2026-04-26 00:15 22.91534 54.66641 31802 ft 481 kts 258°
2026-04-26 00:15 22.90122 54.59548 31852 ft 480 kts 258°
2026-04-26 00:16 22.88708 54.52484 31886 ft 479 kts 258°
2026-04-26 00:16 22.87294 54.45441 31930 ft 477 kts 258°
2026-04-26 00:17 22.85882 54.38423 31971 ft 475 kts 258°
2026-04-26 00:17 22.84473 54.31428 32011 ft 475 kts 258°
2026-04-26 00:18 22.83065 54.24451 32063 ft 474 kts 259°
2026-04-26 00:18 22.81652 54.17473 32119 ft 473 kts 259°
2026-04-26 00:19 22.80240 54.10505 32164 ft 473 kts 259°
2026-04-26 00:19 22.78880 54.03536 32224 ft 472 kts 262°
2026-04-26 00:20 22.78549 53.96572 32216 ft 464 kts 281°
2026-04-26 00:20 22.79456 53.93231 32265 ft 463 kts 293°
2026-04-26 00:20 22.80758 53.90054 32303 ft 458 kts 292°
2026-04-26 00:21 22.82861 53.83587 32367 ft 455 kts 285°
2026-04-26 00:21 22.84441 53.76883 32443 ft 461 kts 284°
2026-04-26 00:22 22.86104 53.70126 32530 ft 466 kts 285°
2026-04-26 00:22 22.87922 53.63363 32593 ft 467 kts 287°
2026-04-26 00:23 22.89799 53.56598 32652 ft 468 kts 287°
2026-04-26 00:23 22.91670 53.49836 32686 ft 468 kts 287°
2026-04-26 00:24 22.93511 53.43114 32751 ft 467 kts 287°
2026-04-26 00:24 22.95348 53.36373 32821 ft 464 kts 287°
2026-04-26 00:25 22.97171 53.29668 32873 ft 461 kts 287°
2026-04-26 00:25 22.98982 53.23002 32927 ft 459 kts 287°
2026-04-26 00:26 23.00779 53.16379 32972 ft 456 kts 287°
2026-04-26 00:26 23.02563 53.09788 33034 ft 454 kts 287°
2026-04-26 00:27 23.04337 53.03226 33090 ft 453 kts 287°
2026-04-26 00:27 23.06112 52.96648 33165 ft 455 kts 287°
2026-04-26 00:28 23.07889 52.90051 33250 ft 455 kts 287°
2026-04-26 00:28 23.09654 52.83488 33311 ft 455 kts 287°
2026-04-26 00:29 23.11421 52.76904 33381 ft 454 kts 287°
2026-04-26 00:29 23.13183 52.70324 33448 ft 452 kts 287°
2026-04-26 00:30 23.14935 52.63773 33491 ft 451 kts 287°
2026-04-26 00:30 23.16664 52.57226 33516 ft 447 kts 284°
2026-04-26 00:31 23.17111 52.50575 33601 ft 450 kts 266°
2026-04-26 00:31 23.15732 52.43895 33638 ft 454 kts 256°
2026-04-26 00:32 23.14565 52.37311 33657 ft 439 kts 275°
2026-04-26 00:32 23.15980 52.27628 33854 ft 429 kts 277°
2026-04-26 00:33 23.16303 52.21101 33881 ft 436 kts 274°
2026-04-26 00:33 23.16526 52.14476 33905 ft 441 kts 275°
2026-04-26 00:34 23.16888 52.07788 33909 ft 445 kts 276°
2026-04-26 00:34 23.17344 52.01041 33903 ft 449 kts 277°
2026-04-26 00:35 23.17822 51.94283 33907 ft 453 kts 277°
2026-04-26 00:35 23.18297 51.87426 33910 ft 456 kts 276°
2026-04-26 00:36 23.18762 51.80542 33898 ft 457 kts 276°
2026-04-26 00:36 23.19223 51.73646 33899 ft 458 kts 276°
2026-04-26 00:37 23.19681 51.66742 33899 ft 458 kts 276°
2026-04-26 00:37 23.20136 51.59847 33915 ft 457 kts 276°
2026-04-26 00:38 23.20589 51.52958 33899 ft 456 kts 276°
2026-04-26 00:38 23.21036 51.46087 33903 ft 455 kts 276°
2026-04-26 00:39 23.21476 51.39286 33906 ft 453 kts 276°
2026-04-26 00:39 23.21916 51.32446 33904 ft 452 kts 276°
2026-04-26 00:40 23.22350 51.25640 33906 ft 450 kts 276°
2026-04-26 00:40 23.22781 51.18844 33903 ft 450 kts 276°
2026-04-26 00:41 23.23210 51.12056 33910 ft 451 kts 276°
2026-04-26 00:41 23.23637 51.05249 33914 ft 452 kts 276°
2026-04-26 00:42 23.24059 50.98465 33908 ft 453 kts 276°
2026-04-26 00:42 23.24481 50.91619 33921 ft 453 kts 276°
2026-04-26 00:43 23.24900 50.84777 33910 ft 453 kts 276°
2026-04-26 00:43 23.25314 50.77955 33910 ft 451 kts 276°
2026-04-26 00:44 23.25725 50.71148 33911 ft 450 kts 276°
2026-04-26 00:44 23.26130 50.64405 33913 ft 449 kts 276°
2026-04-26 00:45 23.26467 50.58740 33917 ft 447 kts 276°
2026-04-26 00:45 23.26931 50.50898 33921 ft 447 kts 276°
2026-04-26 00:46 23.27329 50.44135 33922 ft 448 kts 276°
2026-04-26 00:46 23.27724 50.37352 33918 ft 449 kts 276°
2026-04-26 00:47 23.28116 50.30578 33919 ft 449 kts 276°
2026-04-26 00:47 23.28505 50.23792 33917 ft 450 kts 276°
2026-04-26 00:48 23.28891 50.17005 33919 ft 449 kts 276°
2026-04-26 00:48 23.29273 50.10260 33921 ft 448 kts 276°
2026-04-26 00:49 23.29652 50.03498 33925 ft 447 kts 276°
2026-04-26 00:49 23.30027 49.96750 33926 ft 446 kts 276°
2026-04-26 00:50 23.30399 49.90023 33926 ft 445 kts 276°
2026-04-26 00:50 23.30767 49.83318 33929 ft 444 kts 275°
2026-04-26 00:51 23.31131 49.76615 33926 ft 444 kts 275°
2026-04-26 00:51 23.31493 49.69910 33925 ft 444 kts 275°
2026-04-26 00:52 23.31850 49.63243 33932 ft 445 kts 275°
2026-04-26 00:52 23.32207 49.56518 33931 ft 445 kts 275°
2026-04-26 00:53 23.32561 49.49794 33936 ft 445 kts 275°
2026-04-26 00:53 23.32912 49.43073 33925 ft 445 kts 275°
2026-04-26 00:54 23.33260 49.36354 33930 ft 444 kts 275°
2026-04-26 00:54 23.33604 49.29649 33926 ft 443 kts 275°
2026-04-26 00:55 23.33945 49.22949 33927 ft 442 kts 275°
2026-04-26 00:55 23.34283 49.16267 33928 ft 442 kts 275°
2026-04-26 00:56 23.34560 49.10723 33936 ft 441 kts 275°
2026-04-26 00:56 23.34892 49.04065 33933 ft 441 kts 275°
2026-04-26 00:57 23.35220 48.97403 33934 ft 441 kts 275°
2026-04-26 00:57 23.35546 48.90735 33942 ft 441 kts 275°
2026-04-26 00:58 23.35870 48.84059 33950 ft 441 kts 275°
2026-04-26 00:58 23.36189 48.77432 33930 ft 441 kts 275°
2026-04-26 00:59 23.36506 48.70760 33947 ft 441 kts 275°
2026-04-26 00:59 23.36819 48.64107 33933 ft 440 kts 275°
2026-04-26 01:00 23.37130 48.57463 33952 ft 439 kts 275°
2026-04-26 01:00 23.37437 48.50833 33945 ft 438 kts 275°
2026-04-26 01:01 23.37742 48.44209 33950 ft 438 kts 275°
2026-04-26 01:01 23.38289 48.37635 33921 ft 433 kts 286°
2026-04-26 01:02 23.39506 48.34651 33948 ft 434 kts 302°
2026-04-26 01:02 23.41411 48.32078 33964 ft 440 kts 311°
2026-04-26 01:02 23.46340 48.27998 33991 ft 450 kts 323°
2026-04-26 01:03 23.51646 48.24489 33952 ft 444 kts 322°
2026-04-26 01:03 23.56773 48.20730 33977 ft 446 kts 320°
2026-04-26 01:04 23.61867 48.16818 33981 ft 450 kts 320°
2026-04-26 01:04 23.67025 48.12935 33969 ft 451 kts 320°
2026-04-26 01:05 23.72212 48.09098 33967 ft 450 kts 321°
2026-04-26 01:05 23.77402 48.05281 33976 ft 449 kts 321°
2026-04-26 01:06 23.82580 48.01468 33991 ft 448 kts 320°
2026-04-26 01:06 23.87743 47.97657 33975 ft 447 kts 320°
2026-04-26 01:07 23.92892 47.93849 33982 ft 446 kts 320°
2026-04-26 01:07 23.98000 47.90067 33983 ft 446 kts 320°
2026-04-26 01:08 24.03140 47.86258 34003 ft 445 kts 320°
2026-04-26 01:08 24.08267 47.82457 33977 ft 444 kts 320°
2026-04-26 01:09 24.13378 47.78662 34022 ft 444 kts 320°
2026-04-26 01:09 24.18491 47.74860 34046 ft 445 kts 320°
2026-04-26 01:10 24.23635 47.71033 34027 ft 447 kts 320°
2026-04-26 01:10 24.28744 47.67229 34035 ft 447 kts 320°
2026-04-26 01:11 24.33896 47.63390 34031 ft 447 kts 320°
2026-04-26 01:11 24.39045 47.59550 34023 ft 447 kts 320°
2026-04-26 01:12 24.44182 47.55715 34002 ft 446 kts 320°
2026-04-26 01:12 24.49316 47.51876 34018 ft 445 kts 320°
2026-04-26 01:13 24.54434 47.48046 34023 ft 445 kts 320°
2026-04-26 01:13 24.59507 47.44246 34039 ft 444 kts 319°
2026-04-26 01:14 24.64608 47.40422 34030 ft 443 kts 319°
2026-04-26 01:14 24.69695 47.36603 34033 ft 442 kts 319°
2026-04-26 01:15 24.74773 47.32788 34063 ft 442 kts 319°
2026-04-26 01:15 24.79852 47.28967 34051 ft 443 kts 319°
2026-04-26 01:16 24.84943 47.25134 34057 ft 443 kts 319°
2026-04-26 01:16 24.90034 47.21297 34064 ft 444 kts 319°
2026-04-26 01:17 24.95126 47.17457 34074 ft 444 kts 319°
2026-04-26 01:17 25.00196 47.13629 34067 ft 444 kts 319°
2026-04-26 01:18 25.05293 47.09775 34068 ft 444 kts 319°
2026-04-26 01:18 25.10385 47.05922 34075 ft 444 kts 319°
2026-04-26 01:19 25.15476 47.02068 34078 ft 443 kts 319°
2026-04-26 01:19 25.20556 46.98215 34068 ft 443 kts 319°
2026-04-26 01:20 25.25630 46.94364 34069 ft 442 kts 318°
2026-04-26 01:20 25.30707 46.90507 34080 ft 442 kts 318°
2026-04-26 01:21 25.35738 46.86681 34070 ft 442 kts 318°
2026-04-26 01:21 25.40826 46.82806 34067 ft 441 kts 318°
2026-04-26 01:22 25.45853 46.78974 34069 ft 441 kts 318°
2026-04-26 01:22 25.50910 46.75116 34067 ft 442 kts 318°
2026-04-26 01:23 25.55967 46.71253 34057 ft 442 kts 318°
2026-04-26 01:23 25.61026 46.67385 34052 ft 441 kts 318°
2026-04-26 01:24 25.66076 46.63521 34068 ft 441 kts 317°
2026-04-26 01:24 25.71129 46.59650 34051 ft 441 kts 317°
2026-04-26 01:25 25.76178 46.55776 34052 ft 441 kts 317°
2026-04-26 01:25 25.81222 46.51903 34053 ft 441 kts 317°
2026-04-26 01:26 25.86267 46.48026 34066 ft 441 kts 317°
2026-04-26 01:26 25.91322 46.44136 34058 ft 441 kts 317°
2026-04-26 01:27 25.96371 46.40248 34052 ft 442 kts 317°
2026-04-26 01:27 26.01416 46.36357 34038 ft 441 kts 317°
2026-04-26 01:28 26.06435 46.32483 34052 ft 441 kts 317°
2026-04-26 01:28 26.11477 46.28587 34054 ft 441 kts 317°
2026-04-26 01:29 26.16528 46.24680 34083 ft 440 kts 317°
2026-04-26 01:29 26.21515 46.20828 34060 ft 435 kts 317°
2026-04-26 01:30 26.26507 46.16951 34064 ft 440 kts 317°
2026-04-26 01:30 26.31559 46.13022 34053 ft 444 kts 317°
2026-04-26 01:31 26.36582 46.09127 34040 ft 437 kts 316°
2026-04-26 01:31 26.41552 46.05269 34059 ft 436 kts 316°
2026-04-26 01:32 26.46556 46.01362 34029 ft 442 kts 316°
2026-04-26 01:32 26.51607 45.97425 34031 ft 440 kts 316°
2026-04-26 01:33 26.56596 45.93544 34041 ft 436 kts 316°
2026-04-26 01:33 26.61602 45.89625 34013 ft 442 kts 316°
2026-04-26 01:34 26.66644 45.85680 34013 ft 442 kts 316°
2026-04-26 01:34 26.71635 45.81785 34005 ft 434 kts 316°
2026-04-26 01:35 26.76538 45.77944 34013 ft 433 kts 316°
2026-04-26 01:35 26.81495 45.74046 34001 ft 438 kts 316°
2026-04-26 01:36 26.86498 45.70114 33978 ft 436 kts 316°
2026-04-26 01:37 26.93904 45.64297 33984 ft 436 kts 315°
2026-04-26 01:37 26.98897 45.60357 33984 ft 440 kts 316°
2026-04-26 01:38 27.03886 45.56432 33973 ft 432 kts 315°
2026-04-26 01:38 27.08767 45.52585 33989 ft 433 kts 315°
2026-04-26 01:39 27.13725 45.48657 33985 ft 439 kts 315°
2026-04-26 01:39 27.18721 45.44704 33976 ft 437 kts 315°
2026-04-26 01:40 27.23643 45.40821 33975 ft 431 kts 315°
2026-04-26 01:40 27.28575 45.36903 33978 ft 436 kts 315°
2026-04-26 01:41 27.33562 45.32937 33995 ft 440 kts 315°
2026-04-26 01:41 27.38503 45.29026 33972 ft 430 kts 315°
2026-04-26 01:42 27.43426 45.25105 33961 ft 436 kts 315°
2026-04-26 01:42 27.48408 45.21129 33962 ft 441 kts 315°
2026-04-26 01:43 27.53389 45.17161 33951 ft 437 kts 315°
2026-04-26 01:43 27.58319 45.13241 33967 ft 433 kts 314°
2026-04-26 01:44 27.62428 45.09950 33976 ft 438 kts 314°
2026-04-26 01:44 27.67424 45.05946 33971 ft 442 kts 315°
2026-04-26 01:45 27.72459 45.01915 33976 ft 444 kts 315°
2026-04-26 01:45 27.77511 44.97870 33970 ft 445 kts 315°
2026-04-26 01:46 27.82541 44.93843 33951 ft 437 kts 314°
2026-04-26 01:46 27.87433 44.89920 33981 ft 435 kts 314°
2026-04-26 01:47 27.92395 44.85914 33976 ft 441 kts 314°
2026-04-26 01:47 27.97421 44.81859 33978 ft 446 kts 314°
2026-04-26 01:48 28.02490 44.77773 33968 ft 448 kts 314°
2026-04-26 01:48 28.07577 44.73672 33959 ft 449 kts 315°
2026-04-26 01:49 28.12668 44.69562 33964 ft 449 kts 314°
2026-04-26 01:49 28.17747 44.65457 33955 ft 447 kts 314°
2026-04-26 01:50 28.22783 44.61381 33984 ft 444 kts 314°
2026-04-26 01:50 28.27730 44.57373 33979 ft 438 kts 314°
2026-04-26 01:51 28.32722 44.53308 33964 ft 445 kts 314°
2026-04-26 01:51 28.37783 44.49185 33954 ft 449 kts 314°
2026-04-26 01:52 28.42886 44.45033 33959 ft 452 kts 314°
2026-04-26 01:52 28.48507 44.40460 33943 ft 447 kts 314°
2026-04-26 01:53 28.53515 44.36387 33973 ft 443 kts 314°
2026-04-26 01:53 28.58549 44.32262 33961 ft 449 kts 314°
2026-04-26 01:54 28.63638 44.28091 33951 ft 452 kts 314°
2026-04-26 01:54 28.68758 44.23900 33942 ft 454 kts 314°
2026-04-26 01:55 28.73858 44.19723 33938 ft 454 kts 314°
2026-04-26 01:55 28.78980 44.15523 33933 ft 453 kts 314°
2026-04-26 01:56 28.84088 44.11324 33952 ft 452 kts 314°
2026-04-26 01:56 28.89175 44.07135 33936 ft 451 kts 314°
2026-04-26 01:57 28.94260 44.02946 33929 ft 450 kts 314°
2026-04-26 01:57 28.99335 43.98759 33941 ft 450 kts 314°
2026-04-26 01:58 29.04380 43.94592 33922 ft 450 kts 314°
2026-04-26 01:58 29.09457 43.90393 33923 ft 451 kts 314°
2026-04-26 01:59 29.14539 43.86185 33936 ft 451 kts 315°
2026-04-26 01:59 29.19636 43.81956 33938 ft 453 kts 315°
2026-04-26 02:00 29.24770 43.77690 33940 ft 458 kts 315°
2026-04-26 02:00 29.29946 43.73388 33936 ft 460 kts 315°
2026-04-26 02:01 29.35139 43.69069 33924 ft 462 kts 315°
2026-04-26 02:01 29.40342 43.64736 33921 ft 462 kts 315°
2026-04-26 02:02 29.45542 43.60399 33944 ft 462 kts 315°
2026-04-26 02:02 29.50740 43.56054 33923 ft 462 kts 315°
2026-04-26 02:03 29.55900 43.51735 33938 ft 461 kts 315°
2026-04-26 02:03 29.61086 43.47394 33944 ft 461 kts 315°
2026-04-26 02:04 29.65423 43.43759 33944 ft 460 kts 315°
2026-04-26 02:04 29.70560 43.39446 33933 ft 460 kts 315°
2026-04-26 02:05 29.75729 43.35101 33938 ft 459 kts 315°
2026-04-26 02:05 29.80889 43.30754 33925 ft 460 kts 315°
2026-04-26 02:06 29.86062 43.26391 33922 ft 461 kts 315°
2026-04-26 02:06 29.91247 43.22014 33930 ft 463 kts 315°
2026-04-26 02:07 29.96450 43.17618 33926 ft 464 kts 315°
2026-04-26 02:07 30.01666 43.13205 33920 ft 465 kts 315°
2026-04-26 02:08 30.06886 43.08782 33912 ft 465 kts 315°
2026-04-26 02:08 30.12067 43.04385 33896 ft 466 kts 315°
2026-04-26 02:09 30.17284 42.99953 33934 ft 466 kts 315°
2026-04-26 02:09 30.22504 42.95511 33905 ft 466 kts 315°
2026-04-26 02:10 30.27720 42.91068 33913 ft 465 kts 315°
2026-04-26 02:10 30.32935 42.86619 33910 ft 465 kts 315°
2026-04-26 02:11 30.38145 42.82169 33907 ft 465 kts 315°
2026-04-26 02:11 30.43347 42.77718 33924 ft 465 kts 315°
2026-04-26 02:12 30.48563 42.73247 33912 ft 465 kts 315°
2026-04-26 02:12 30.53742 42.68805 33907 ft 465 kts 315°
2026-04-26 02:13 30.58947 42.64335 33903 ft 465 kts 315°
2026-04-26 02:13 30.64150 42.59861 33922 ft 465 kts 315°
2026-04-26 02:14 30.69361 42.55371 33907 ft 466 kts 315°
2026-04-26 02:14 30.74572 42.50876 33931 ft 467 kts 315°
2026-04-26 02:15 30.79788 42.46369 33916 ft 467 kts 315°
2026-04-26 02:15 30.85008 42.41855 33927 ft 468 kts 315°
2026-04-26 02:16 30.90205 42.37354 33925 ft 469 kts 316°
2026-04-26 02:16 30.95438 42.32817 33929 ft 469 kts 316°
2026-04-26 02:17 31.00679 42.28266 33928 ft 469 kts 315°
2026-04-26 02:17 31.05911 42.23716 33942 ft 469 kts 316°
2026-04-26 02:18 31.11140 42.19160 33959 ft 469 kts 316°
2026-04-26 02:18 31.16379 42.14590 33939 ft 469 kts 316°
2026-04-26 02:19 31.21604 42.10027 33944 ft 469 kts 316°
2026-04-26 02:19 31.26829 42.05459 33945 ft 468 kts 316°
2026-04-26 02:20 31.32007 42.00925 33940 ft 468 kts 316°
2026-04-26 02:20 31.37216 41.96355 33963 ft 468 kts 316°
2026-04-26 02:21 31.42425 41.91776 33952 ft 469 kts 316°
2026-04-26 02:21 31.47653 41.87177 33953 ft 469 kts 316°
2026-04-26 02:22 31.52873 41.82581 33952 ft 470 kts 316°
2026-04-26 02:22 31.58104 41.77967 33954 ft 470 kts 316°
2026-04-26 02:23 31.63332 41.73348 33957 ft 471 kts 316°
2026-04-26 02:23 31.68535 41.68745 33958 ft 471 kts 316°
2026-04-26 02:24 31.73780 41.64097 33964 ft 472 kts 316°
2026-04-26 02:24 31.79038 41.59431 33950 ft 473 kts 316°
2026-04-26 02:25 31.84301 41.54756 33964 ft 473 kts 316°
2026-04-26 02:25 31.89560 41.50077 33963 ft 474 kts 316°
2026-04-26 02:26 31.94817 41.45393 33958 ft 474 kts 316°
2026-04-26 02:26 32.00048 41.40724 33961 ft 474 kts 316°
2026-04-26 02:27 32.05300 41.36029 33957 ft 474 kts 316°
2026-04-26 02:27 32.10549 41.31329 33963 ft 474 kts 316°
2026-04-26 02:28 32.15806 41.26617 33957 ft 474 kts 316°
2026-04-26 02:28 32.21064 41.21899 33954 ft 474 kts 316°
2026-04-26 02:29 32.26319 41.17174 33966 ft 475 kts 316°
2026-04-26 02:29 32.31576 41.12440 33965 ft 475 kts 316°
2026-04-26 02:30 32.36837 41.07693 33976 ft 475 kts 317°
2026-04-26 02:30 32.42096 41.02942 33950 ft 476 kts 317°
2026-04-26 02:31 32.47357 40.98185 33963 ft 476 kts 317°
2026-04-26 02:31 32.52586 40.93449 33956 ft 476 kts 317°
2026-04-26 02:32 32.57845 40.88678 33964 ft 477 kts 317°
2026-04-26 02:32 32.63113 40.83890 33957 ft 477 kts 317°
2026-04-26 02:33 32.68392 40.79085 33966 ft 478 kts 317°
2026-04-26 02:33 32.73677 40.74268 33956 ft 479 kts 317°
2026-04-26 02:34 32.78960 40.69447 33963 ft 479 kts 317°
2026-04-26 02:34 32.84253 40.64609 33957 ft 480 kts 317°
2026-04-26 02:35 32.89547 40.59763 33958 ft 480 kts 317°
2026-04-26 02:35 32.94839 40.54910 33956 ft 480 kts 317°
2026-04-26 02:36 33.00135 40.50045 33958 ft 481 kts 317°
2026-04-26 02:36 33.05401 40.45200 33970 ft 481 kts 317°
2026-04-26 02:37 33.10701 40.40316 33954 ft 482 kts 317°
2026-04-26 02:37 33.16005 40.35423 33962 ft 482 kts 317°
2026-04-26 02:38 33.21305 40.30526 33960 ft 482 kts 317°
2026-04-26 02:38 33.26602 40.25623 33963 ft 482 kts 317°
2026-04-26 02:39 33.31905 40.20705 33963 ft 482 kts 317°
2026-04-26 02:39 33.37195 40.15793 33963 ft 481 kts 317°
2026-04-26 02:40 33.42491 40.10868 33962 ft 481 kts 317°
2026-04-26 02:40 33.47767 40.05952 33961 ft 481 kts 317°
2026-04-26 02:41 33.53007 40.01064 33981 ft 480 kts 317°
2026-04-26 02:41 33.58277 39.96139 33969 ft 480 kts 317°
2026-04-26 02:42 33.63545 39.91207 33977 ft 479 kts 317°
2026-04-26 02:42 33.68798 39.86282 33969 ft 479 kts 317°
2026-04-26 02:43 33.76666 39.78892 33987 ft 478 kts 317°
2026-04-26 02:43 33.81910 39.73956 33963 ft 478 kts 317°
2026-04-26 02:44 33.87115 39.69049 33956 ft 478 kts 317°
2026-04-26 02:44 33.92351 39.64105 33984 ft 478 kts 317°
2026-04-26 02:45 33.97587 39.59151 33970 ft 479 kts 317°
2026-04-26 02:45 34.02826 39.54188 33968 ft 479 kts 317°
2026-04-26 02:46 34.08075 39.49208 33969 ft 480 kts 317°
2026-04-26 02:46 34.13319 39.44225 33966 ft 480 kts 317°
2026-04-26 02:47 34.18565 39.39231 33975 ft 480 kts 317°
2026-04-26 02:47 34.23819 39.34222 33998 ft 480 kts 317°
2026-04-26 02:48 34.29030 39.29242 33980 ft 481 kts 317°
2026-04-26 02:48 34.34277 39.24223 33974 ft 481 kts 317°
2026-04-26 02:49 34.39521 39.19200 33971 ft 480 kts 317°
2026-04-26 02:49 34.44753 39.14181 33972 ft 479 kts 317°
2026-04-26 02:50 34.49981 39.09151 33982 ft 482 kts 317°
2026-04-26 02:50 34.54374 39.04915 33994 ft 488 kts 318°
2026-04-26 02:51 34.59732 38.99754 33987 ft 495 kts 316°
2026-04-26 02:51 34.66031 38.93678 33992 ft 497 kts 316°
2026-04-26 02:52 34.70531 38.89329 33974 ft 490 kts 316°
2026-04-26 02:52 34.75846 38.84179 33988 ft 488 kts 316°
2026-04-26 02:53 34.81111 38.79063 33993 ft 488 kts 316°
2026-04-26 02:53 34.86417 38.73896 33989 ft 488 kts 316°
2026-04-26 02:54 34.91727 38.68722 33981 ft 489 kts 316°
2026-04-26 02:54 34.97040 38.63536 33998 ft 489 kts 315°
2026-04-26 02:55 35.02346 38.58350 33988 ft 489 kts 315°
2026-04-26 02:55 35.07661 38.53145 33979 ft 489 kts 315°
2026-04-26 02:56 35.12938 38.47971 33969 ft 489 kts 315°
2026-04-26 02:56 35.18237 38.42765 33969 ft 489 kts 315°
2026-04-26 02:57 35.23537 38.37550 33973 ft 488 kts 315°
2026-04-26 02:57 35.28824 38.32336 33961 ft 488 kts 315°
2026-04-26 02:58 35.34111 38.27115 33954 ft 488 kts 315°
2026-04-26 02:58 35.39392 38.21890 33960 ft 487 kts 315°
2026-04-26 02:59 35.44664 38.16666 33977 ft 487 kts 315°
2026-04-26 02:59 35.49932 38.11437 33955 ft 486 kts 315°
2026-04-26 03:00 35.55151 38.06247 33954 ft 485 kts 315°
2026-04-26 03:00 35.60388 38.01029 33960 ft 485 kts 315°
2026-04-26 03:01 35.65619 37.95807 33959 ft 484 kts 315°
2026-04-26 03:01 35.70854 37.90574 33963 ft 485 kts 314°
2026-04-26 03:02 35.76083 37.85337 33960 ft 484 kts 314°
2026-04-26 03:02 35.81310 37.80093 33959 ft 484 kts 314°
2026-04-26 03:03 35.86530 37.74846 33975 ft 484 kts 314°
2026-04-26 03:03 35.91752 37.69588 33969 ft 484 kts 314°
2026-04-26 03:04 35.96938 37.64356 33965 ft 485 kts 314°
2026-04-26 03:04 36.02155 37.59086 33978 ft 484 kts 314°
2026-04-26 03:05 36.07379 37.53800 33971 ft 485 kts 314°
2026-04-26 03:05 36.12595 37.48512 33987 ft 485 kts 314°
2026-04-26 03:06 36.17815 37.43205 33991 ft 486 kts 315°
2026-04-26 03:06 36.23052 37.37875 33997 ft 487 kts 315°
2026-04-26 03:07 36.28284 37.32545 33992 ft 487 kts 315°
2026-04-26 03:07 36.33497 37.27225 33995 ft 488 kts 315°
2026-04-26 03:08 36.38737 37.21865 34013 ft 488 kts 315°
2026-04-26 03:08 36.43982 37.16487 33986 ft 489 kts 315°
2026-04-26 03:09 36.49221 37.11109 33996 ft 489 kts 315°
2026-04-26 03:09 36.54460 37.05723 33997 ft 489 kts 315°
2026-04-26 03:10 36.59700 37.00324 33995 ft 488 kts 315°
2026-04-26 03:10 36.64930 36.94924 34006 ft 489 kts 315°
2026-04-26 03:11 36.70157 36.89518 33994 ft 488 kts 315°
2026-04-26 03:11 36.75347 36.84142 33995 ft 488 kts 315°
2026-04-26 03:12 36.80565 36.78724 34001 ft 488 kts 315°
2026-04-26 03:12 36.85784 36.73295 34010 ft 488 kts 316°
2026-04-26 03:13 36.91002 36.67858 33991 ft 489 kts 316°
2026-04-26 03:13 36.96222 36.62412 33993 ft 489 kts 316°
2026-04-26 03:14 37.01440 36.56958 33983 ft 489 kts 316°
2026-04-26 03:14 37.06653 36.51497 33981 ft 488 kts 316°
2026-04-26 03:15 37.11868 36.46020 33981 ft 490 kts 316°
2026-04-26 03:15 37.17094 36.40525 33972 ft 490 kts 316°
2026-04-26 03:16 37.22318 36.35025 33952 ft 490 kts 316°
2026-04-26 03:16 37.27539 36.29517 33966 ft 490 kts 316°
2026-04-26 03:17 37.32724 36.24034 33966 ft 491 kts 316°
2026-04-26 03:17 37.37944 36.18501 33962 ft 491 kts 316°
2026-04-26 03:18 37.43170 36.12952 33974 ft 492 kts 316°
2026-04-26 03:18 37.48400 36.07392 33977 ft 491 kts 316°
2026-04-26 03:19 37.53621 36.01831 33988 ft 492 kts 316°
2026-04-26 03:19 37.58844 35.96258 33969 ft 492 kts 316°
2026-04-26 03:20 37.64061 35.90679 34002 ft 491 kts 316°
2026-04-26 03:20 37.69271 35.85096 34021 ft 491 kts 316°
2026-04-26 03:21 37.74481 35.79501 34017 ft 491 kts 316°
2026-04-26 03:21 37.79679 35.73910 34028 ft 491 kts 316°
2026-04-26 03:22 37.84838 35.68349 34025 ft 490 kts 316°
2026-04-26 03:22 37.90019 35.62756 34041 ft 489 kts 316°
2026-04-26 03:23 37.95193 35.57159 34041 ft 489 kts 316°
2026-04-26 03:23 38.00355 35.51566 34041 ft 488 kts 316°
2026-04-26 03:24 38.05512 35.45964 34062 ft 487 kts 316°
2026-04-26 03:24 38.10657 35.40365 34050 ft 487 kts 316°
2026-04-26 03:25 38.15797 35.34763 34055 ft 486 kts 316°
2026-04-26 03:25 38.20932 35.29154 34059 ft 486 kts 316°
2026-04-26 03:26 38.26024 35.23581 34071 ft 486 kts 317°
2026-04-26 03:26 38.31149 35.17960 34060 ft 486 kts 317°
2026-04-26 03:27 38.36273 35.12330 34063 ft 486 kts 317°
2026-04-26 03:27 38.41396 35.06693 34061 ft 486 kts 316°
2026-04-26 03:28 38.46511 35.01052 34063 ft 486 kts 316°
2026-04-26 03:28 38.51619 34.95406 34072 ft 486 kts 317°
2026-04-26 03:29 38.56729 34.89747 34062 ft 486 kts 317°
2026-04-26 03:29 38.61827 34.84094 34065 ft 485 kts 317°
2026-04-26 03:30 38.66926 34.78426 34072 ft 484 kts 317°
2026-04-26 03:30 38.71968 34.72811 34082 ft 483 kts 317°
2026-04-26 03:31 38.77036 34.67154 34079 ft 483 kts 317°
2026-04-26 03:31 38.82101 34.61492 34082 ft 483 kts 317°
2026-04-26 03:32 38.87163 34.55822 34069 ft 483 kts 317°
2026-04-26 03:32 38.92224 34.50142 34081 ft 483 kts 317°
2026-04-26 03:33 38.97279 34.44455 34079 ft 483 kts 317°
2026-04-26 03:33 39.02334 34.38757 34069 ft 483 kts 317°
2026-04-26 03:34 39.07385 34.33055 34068 ft 483 kts 317°
2026-04-26 03:34 39.12404 34.27377 34061 ft 483 kts 317°
2026-04-26 03:35 39.17484 34.21620 34066 ft 483 kts 317°
2026-04-26 03:35 39.22499 34.15920 34065 ft 483 kts 317°
2026-04-26 03:36 39.27540 34.10181 34059 ft 483 kts 317°
2026-04-26 03:36 39.32573 34.04443 34062 ft 482 kts 317°
2026-04-26 03:37 39.37596 33.98705 34057 ft 481 kts 317°
2026-04-26 03:37 39.42608 33.92967 34066 ft 480 kts 318°
2026-04-26 03:38 39.47607 33.87230 34053 ft 480 kts 318°
2026-04-26 03:38 39.52603 33.81486 34057 ft 480 kts 318°
2026-04-26 03:39 39.57589 33.75745 34060 ft 480 kts 318°
2026-04-26 03:39 39.62544 33.70027 34057 ft 480 kts 318°
2026-04-26 03:40 39.67528 33.64263 34053 ft 480 kts 318°
2026-04-26 03:40 39.72514 33.58483 34056 ft 480 kts 318°
2026-04-26 03:41 39.76698 33.53626 34053 ft 481 kts 318°
2026-04-26 03:41 39.81653 33.47864 34055 ft 481 kts 318°
2026-04-26 03:42 39.86643 33.42049 34051 ft 481 kts 318°
2026-04-26 03:42 39.91630 33.36224 34048 ft 481 kts 318°
2026-04-26 03:43 39.96605 33.30403 34048 ft 480 kts 317°
2026-04-26 03:43 40.01574 33.24574 34052 ft 480 kts 318°
2026-04-26 03:44 40.06526 33.18752 34049 ft 479 kts 318°
2026-04-26 03:44 40.11480 33.12919 34074 ft 478 kts 318°
2026-04-26 03:45 40.16384 33.07136 34071 ft 477 kts 319°
2026-04-26 03:45 40.21306 33.01313 34076 ft 477 kts 318°
2026-04-26 03:46 40.26226 32.95486 34075 ft 477 kts 318°
2026-04-26 03:47 40.33607 32.86720 34064 ft 477 kts 319°
2026-04-26 03:47 40.38525 32.80864 34068 ft 478 kts 318°
2026-04-26 03:48 40.43443 32.74996 34065 ft 478 kts 318°
2026-04-26 03:48 40.48369 32.69107 34069 ft 479 kts 319°
2026-04-26 03:49 40.53297 32.63202 34071 ft 479 kts 318°
2026-04-26 03:49 40.58222 32.57289 34076 ft 479 kts 318°
2026-04-26 03:50 40.63144 32.51367 34068 ft 479 kts 319°
2026-04-26 03:50 40.68040 32.45462 34076 ft 479 kts 319°
2026-04-26 03:51 40.72948 32.39532 34068 ft 479 kts 318°
2026-04-26 03:51 40.77853 32.33595 34062 ft 478 kts 318°
2026-04-26 03:52 40.82749 32.27655 34050 ft 477 kts 318°
2026-04-26 03:52 40.87627 32.21724 34058 ft 476 kts 318°
2026-04-26 03:53 40.92490 32.15798 34048 ft 475 kts 318°
2026-04-26 03:53 40.97340 32.09876 34044 ft 474 kts 318°
2026-04-26 03:54 41.02179 32.03954 34029 ft 473 kts 318°
2026-04-26 03:54 41.06984 31.98064 34025 ft 474 kts 318°
2026-04-26 03:55 41.11827 31.92117 34014 ft 473 kts 318°
2026-04-26 03:55 41.16659 31.86169 34006 ft 473 kts 318°
2026-04-26 03:56 41.21479 31.80220 34007 ft 473 kts 318°
2026-04-26 03:56 41.26306 31.74251 33999 ft 474 kts 318°
2026-04-26 03:57 41.31127 31.68277 34008 ft 473 kts 317°
2026-04-26 03:57 41.35944 31.62297 34010 ft 473 kts 317°
2026-04-26 03:58 41.40728 31.56344 33998 ft 473 kts 317°
2026-04-26 03:58 41.45530 31.50358 33993 ft 472 kts 317°
2026-04-26 03:59 41.50326 31.44363 33994 ft 471 kts 317°
2026-04-26 03:59 41.55107 31.38374 33991 ft 471 kts 317°
2026-04-26 04:00 41.59874 31.32391 34001 ft 470 kts 317°
2026-04-26 04:00 41.64603 31.26445 33989 ft 469 kts 317°
2026-04-26 04:01 41.69380 31.20424 33992 ft 468 kts 317°
2026-04-26 04:01 41.74114 31.14445 33995 ft 468 kts 317°
2026-04-26 04:02 41.78811 31.08499 33990 ft 467 kts 317°
2026-04-26 04:02 41.83527 31.02517 33997 ft 467 kts 317°
2026-04-26 04:03 41.88239 30.96528 33990 ft 466 kts 317°
2026-04-26 04:03 41.92943 30.90536 33998 ft 466 kts 317°
2026-04-26 04:04 41.97647 30.84531 33996 ft 466 kts 317°
2026-04-26 04:04 42.02341 30.78527 33994 ft 466 kts 317°
2026-04-26 04:05 42.07040 30.72505 33993 ft 466 kts 317°
2026-04-26 04:05 42.11724 30.66488 33994 ft 465 kts 317°
2026-04-26 04:06 42.16402 30.60464 33994 ft 465 kts 317°
2026-04-26 04:06 42.21069 30.54440 33995 ft 464 kts 317°
2026-04-26 04:07 42.25729 30.48415 33999 ft 464 kts 317°
2026-04-26 04:07 42.30382 30.42386 33996 ft 463 kts 316°
2026-04-26 04:08 42.35021 30.36361 34003 ft 462 kts 316°
2026-04-26 04:08 42.39627 30.30368 33988 ft 462 kts 316°
2026-04-26 04:09 42.44247 30.24342 33991 ft 461 kts 316°
2026-04-26 04:09 42.48851 30.18323 33988 ft 460 kts 316°
2026-04-26 04:10 42.53447 30.12303 33989 ft 459 kts 316°
2026-04-26 04:10 42.58037 30.06277 33991 ft 458 kts 316°
2026-04-26 04:11 42.62618 30.00251 33988 ft 458 kts 316°
2026-04-26 04:11 42.67192 29.94220 33989 ft 458 kts 316°
2026-04-26 04:12 42.71757 29.88189 33988 ft 457 kts 316°
2026-04-26 04:12 42.76286 29.82193 33983 ft 457 kts 316°
2026-04-26 04:13 42.80840 29.76149 33988 ft 457 kts 316°
2026-04-26 04:13 42.85386 29.70103 33982 ft 456 kts 316°
2026-04-26 04:14 42.89932 29.64045 33977 ft 456 kts 316°
2026-04-26 04:14 42.94468 29.57987 33982 ft 456 kts 316°
2026-04-26 04:15 42.98970 29.51961 33992 ft 456 kts 316°
2026-04-26 04:15 43.03498 29.45887 33976 ft 456 kts 315°
2026-04-26 04:16 43.08017 29.39811 33981 ft 455 kts 315°
2026-04-26 04:16 43.12535 29.33722 33981 ft 455 kts 315°
2026-04-26 04:17 43.17049 29.27627 33978 ft 455 kts 315°
2026-04-26 04:17 43.21553 29.21532 33979 ft 455 kts 315°
2026-04-26 04:18 43.26053 29.15431 33973 ft 454 kts 315°
2026-04-26 04:18 43.30541 29.09329 33973 ft 454 kts 315°
2026-04-26 04:19 43.35023 29.03223 33978 ft 453 kts 315°
2026-04-26 04:19 43.39493 28.97122 33968 ft 453 kts 315°
2026-04-26 04:20 43.43927 28.91055 33965 ft 452 kts 314°
2026-04-26 04:20 43.48378 28.84950 33967 ft 451 kts 314°
2026-04-26 04:21 43.52816 28.78849 33964 ft 450 kts 314°
2026-04-26 04:21 43.57245 28.72749 33966 ft 450 kts 314°
2026-04-26 04:22 43.61668 28.66644 33961 ft 449 kts 314°
2026-04-26 04:22 43.66092 28.60523 33978 ft 449 kts 314°
2026-04-26 04:23 43.70506 28.54403 33955 ft 450 kts 314°
2026-04-26 04:23 43.74874 28.48306 33941 ft 448 kts 313°
2026-04-26 04:24 43.79148 28.42017 33950 ft 449 kts 312°
2026-04-26 04:24 43.83381 28.35662 33937 ft 449 kts 312°
2026-04-26 04:25 43.87631 28.29297 33935 ft 450 kts 312°
2026-04-26 04:25 43.91889 28.22941 33932 ft 450 kts 312°
2026-04-26 04:26 43.96152 28.16576 33926 ft 450 kts 312°
2026-04-26 04:26 44.00409 28.10204 33944 ft 450 kts 312°
2026-04-26 04:27 44.04660 28.03828 33946 ft 449 kts 311°
2026-04-26 04:27 44.08896 27.97458 33920 ft 448 kts 311°
2026-04-26 04:28 44.13085 27.91142 33921 ft 446 kts 311°
2026-04-26 04:28 44.17282 27.84798 33922 ft 444 kts 311°
2026-04-26 04:29 44.20759 27.79533 33921 ft 443 kts 311°
2026-04-26 04:29 44.24936 27.73195 33913 ft 443 kts 311°
2026-04-26 04:30 44.29099 27.66864 33913 ft 443 kts 311°
2026-04-26 04:30 44.33266 27.60513 33918 ft 443 kts 311°
2026-04-26 04:31 44.37421 27.54168 33917 ft 438 kts 311°
2026-04-26 04:31 44.41514 27.47904 33910 ft 437 kts 311°
2026-04-26 04:32 44.45599 27.41634 33905 ft 435 kts 310°
2026-04-26 04:32 44.49652 27.35398 33910 ft 437 kts 310°
2026-04-26 04:33 44.53731 27.29111 33895 ft 435 kts 310°
2026-04-26 04:33 44.57792 27.22838 33900 ft 436 kts 310°
2026-04-26 04:34 44.61852 27.16551 33917 ft 436 kts 310°
2026-04-26 04:34 44.65921 27.10237 33909 ft 434 kts 310°
2026-04-26 04:35 44.69958 27.03960 33914 ft 434 kts 310°
2026-04-26 04:35 44.74005 26.97653 33924 ft 432 kts 310°
2026-04-26 04:36 44.78038 26.91350 33918 ft 432 kts 310°
2026-04-26 04:36 44.82075 26.85030 33887 ft 432 kts 310°
2026-04-26 04:37 44.86105 26.78706 33885 ft 433 kts 310°
2026-04-26 04:37 44.90116 26.72396 33890 ft 432 kts 309°
2026-04-26 04:38 44.94119 26.66085 33903 ft 432 kts 309°
2026-04-26 04:38 44.98117 26.59769 33899 ft 431 kts 309°
2026-04-26 04:39 45.02085 26.53485 33880 ft 431 kts 309°
2026-04-26 04:39 45.06070 26.47160 33956 ft 428 kts 309°
2026-04-26 04:40 45.10048 26.40831 33923 ft 432 kts 309°
2026-04-26 04:40 45.14041 26.34465 33917 ft 430 kts 309°
2026-04-26 04:41 45.18009 26.28125 33924 ft 431 kts 309°
2026-04-26 04:41 45.22013 26.21708 33927 ft 435 kts 309°
2026-04-26 04:42 45.26031 26.15258 33914 ft 436 kts 309°
2026-04-26 04:42 45.29997 26.08881 33914 ft 432 kts 309°
2026-04-26 04:43 45.33959 26.02490 33927 ft 431 kts 309°
2026-04-26 04:43 45.37930 25.96068 33939 ft 434 kts 309°
2026-04-26 04:44 45.41920 25.89603 33942 ft 432 kts 309°
2026-04-26 04:44 45.45868 25.83195 33933 ft 427 kts 309°
2026-04-26 04:45 45.49797 25.76797 33939 ft 430 kts 308°
2026-04-26 04:45 45.53738 25.70364 33954 ft 434 kts 309°
2026-04-26 04:46 45.57717 25.63857 33939 ft 434 kts 309°
2026-04-26 04:46 45.61682 25.57360 33946 ft 433 kts 308°
2026-04-26 04:47 45.65608 25.50914 33938 ft 428 kts 308°
2026-04-26 04:47 45.69501 25.44499 33958 ft 432 kts 309°
2026-04-26 04:48 45.75460 25.34652 33934 ft 437 kts 309°
2026-04-26 04:48 45.79443 25.28054 33958 ft 441 kts 309°
2026-04-26 04:49 45.83472 25.21364 33951 ft 443 kts 309°
2026-04-26 04:49 45.87472 25.14708 33938 ft 438 kts 309°
2026-04-26 04:50 45.91443 25.08082 33940 ft 437 kts 309°
2026-04-26 04:50 45.95377 25.01502 33941 ft 437 kts 309°
2026-04-26 04:51 45.99334 24.94868 33949 ft 437 kts 309°
2026-04-26 04:51 46.03288 24.88223 33942 ft 438 kts 309°
2026-04-26 04:52 46.07251 24.81545 33950 ft 440 kts 309°
2026-04-26 04:52 46.11237 24.74814 33953 ft 442 kts 309°
2026-04-26 04:53 46.15219 24.68076 33936 ft 441 kts 309°
2026-04-26 04:53 46.19180 24.61353 33941 ft 439 kts 309°
2026-04-26 04:54 46.23134 24.54625 33936 ft 439 kts 308°
2026-04-26 04:54 46.27092 24.47875 33937 ft 441 kts 309°
2026-04-26 04:55 46.31015 24.41171 33938 ft 437 kts 308°
2026-04-26 04:55 46.34944 24.34438 33940 ft 436 kts 308°
2026-04-26 04:56 46.38865 24.27700 33949 ft 439 kts 308°
2026-04-26 04:56 46.42795 24.20932 33951 ft 439 kts 308°
2026-04-26 04:57 46.46711 24.14173 33953 ft 436 kts 308°
2026-04-26 04:57 46.50616 24.07415 33925 ft 437 kts 308°
2026-04-26 04:58 46.54498 24.00678 33949 ft 440 kts 308°
2026-04-26 04:58 46.58429 23.93842 33943 ft 442 kts 308°
2026-04-26 04:59 46.62362 23.86987 33910 ft 439 kts 308°
2026-04-26 04:59 46.66268 23.80162 33933 ft 437 kts 308°
2026-04-26 05:00 46.70172 23.73318 33939 ft 442 kts 308°
2026-04-26 05:00 46.74099 23.66421 33941 ft 439 kts 308°
2026-04-26 05:01 46.77981 23.59587 33909 ft 436 kts 308°
2026-04-26 05:01 46.81848 23.52762 33907 ft 435 kts 308°
2026-04-26 05:02 46.85664 23.46006 33915 ft 434 kts 309°
2026-04-26 05:02 46.89550 23.39109 33937 ft 444 kts 308°
2026-04-26 05:03 46.93486 23.32112 33905 ft 445 kts 308°
2026-04-26 05:03 46.97417 23.25106 33910 ft 445 kts 308°
2026-04-26 05:04 47.01337 23.18098 33928 ft 444 kts 308°
2026-04-26 05:04 47.05222 23.11135 33931 ft 437 kts 308°
2026-04-26 05:05 47.09079 23.04204 33914 ft 438 kts 308°
2026-04-26 05:05 47.12936 22.97254 33898 ft 438 kts 308°
2026-04-26 05:06 47.16783 22.90307 33920 ft 439 kts 308°
2026-04-26 05:06 47.20605 22.83384 33955 ft 441 kts 309°
2026-04-26 05:07 47.24504 22.76303 33911 ft 445 kts 309°
2026-04-26 05:07 47.28356 22.69296 33907 ft 436 kts 309°
2026-04-26 05:08 47.32173 22.62333 33912 ft 436 kts 309°
2026-04-26 05:08 47.35848 22.55259 33916 ft 434 kts 306°
2026-04-26 05:09 47.39341 22.47979 33918 ft 435 kts 306°
2026-04-26 05:09 47.42848 22.40717 33918 ft 434 kts 306°
2026-04-26 05:10 47.46384 22.33474 33921 ft 434 kts 307°
2026-04-26 05:10 47.49886 22.26298 33920 ft 433 kts 307°
2026-04-26 05:11 47.53390 22.19084 33919 ft 430 kts 307°
2026-04-26 05:11 47.56860 22.11920 33911 ft 426 kts 307°
2026-04-26 05:12 47.60216 22.04715 33903 ft 422 kts 305°
2026-04-26 05:12 47.63403 21.97469 33898 ft 417 kts 304°
2026-04-26 05:13 47.66544 21.90285 33894 ft 413 kts 305°
2026-04-26 05:13 47.69679 21.83162 33901 ft 411 kts 305°
2026-04-26 05:14 47.72794 21.76104 33901 ft 412 kts 305°
2026-04-26 05:14 47.75938 21.68971 33901 ft 413 kts 305°
2026-04-26 05:15 47.79090 21.61800 33900 ft 415 kts 305°
2026-04-26 05:15 47.82256 21.54573 33899 ft 417 kts 305°
2026-04-26 05:16 47.84886 21.48552 33892 ft 418 kts 305°
2026-04-26 05:16 47.88050 21.41292 33890 ft 417 kts 305°
2026-04-26 05:17 47.91204 21.34037 33883 ft 417 kts 305°
2026-04-26 05:17 47.94349 21.26783 33892 ft 416 kts 305°
2026-04-26 05:18 47.97483 21.19536 33889 ft 415 kts 305°
2026-04-26 05:18 48.00602 21.12304 33900 ft 414 kts 304°
2026-04-26 05:19 48.03705 21.05091 33884 ft 412 kts 304°
2026-04-26 05:19 48.06789 20.97901 33887 ft 409 kts 304°
2026-04-26 05:20 48.09851 20.90740 33894 ft 408 kts 304°
2026-04-26 05:20 48.12908 20.83576 33893 ft 409 kts 304°
2026-04-26 05:21 48.15958 20.76412 33899 ft 412 kts 304°
2026-04-26 05:21 48.19046 20.69138 33898 ft 415 kts 304°
2026-04-26 05:22 48.22149 20.61808 33900 ft 417 kts 304°
2026-04-26 05:22 48.25255 20.54447 33897 ft 418 kts 304°
2026-04-26 05:23 48.28368 20.47049 33904 ft 420 kts 304°
2026-04-26 05:23 48.31484 20.39632 33911 ft 420 kts 304°
2026-04-26 05:24 48.34628 20.32216 33920 ft 420 kts 305°
2026-04-26 05:24 48.37823 20.24870 33918 ft 419 kts 306°
2026-04-26 05:25 48.40993 20.17585 33921 ft 418 kts 305°
2026-04-26 05:25 48.44163 20.10254 33925 ft 416 kts 305°
2026-04-26 05:26 48.47305 20.02950 33938 ft 415 kts 305°
2026-04-26 05:26 48.50438 19.95646 33933 ft 414 kts 305°
2026-04-26 05:27 48.53559 19.88343 33945 ft 414 kts 305°
2026-04-26 05:27 48.56685 19.81018 33938 ft 416 kts 305°
2026-04-26 05:28 48.59845 19.73589 33961 ft 425 kts 305°
2026-04-26 05:28 48.63033 19.66078 33960 ft 429 kts 305°
2026-04-26 05:29 48.66248 19.58474 33979 ft 429 kts 305°
2026-04-26 05:29 48.69449 19.50877 33977 ft 427 kts 305°
2026-04-26 05:30 48.72629 19.43313 34014 ft 424 kts 305°
2026-04-26 05:30 48.75794 19.35768 34011 ft 423 kts 305°
2026-04-26 05:31 48.78941 19.28244 34061 ft 422 kts 304°
2026-04-26 05:31 48.82055 19.20778 34051 ft 420 kts 304°
2026-04-26 05:32 48.85166 19.13295 34043 ft 419 kts 305°
2026-04-26 05:32 48.88266 19.05816 34060 ft 417 kts 305°
2026-04-26 05:33 48.91361 18.98336 34058 ft 418 kts 305°
2026-04-26 05:33 48.94449 18.90848 34072 ft 419 kts 305°
2026-04-26 05:34 48.97547 18.83318 34075 ft 420 kts 304°
2026-04-26 05:34 49.00645 18.75762 34082 ft 420 kts 305°
2026-04-26 05:35 49.03739 18.68195 34089 ft 421 kts 304°
2026-04-26 05:35 49.06811 18.60659 34088 ft 422 kts 304°
2026-04-26 05:36 49.09908 18.53046 34087 ft 421 kts 305°
2026-04-26 05:36 49.12989 18.45446 34113 ft 421 kts 304°
2026-04-26 05:37 49.16071 18.37816 34098 ft 423 kts 304°
2026-04-26 05:37 49.19163 18.30146 34147 ft 424 kts 304°
2026-04-26 05:38 49.22250 18.22467 34117 ft 423 kts 304°
2026-04-26 05:38 49.25319 18.14836 34111 ft 419 kts 305°
2026-04-26 05:39 49.28550 18.07452 34117 ft 416 kts 307°
2026-04-26 05:39 49.31860 18.00188 34118 ft 415 kts 307°
2026-04-26 05:40 49.35144 17.92914 34130 ft 415 kts 307°
2026-04-26 05:40 49.38385 17.85634 34132 ft 416 kts 307°
2026-04-26 05:41 49.41641 17.78265 34144 ft 418 kts 307°
2026-04-26 05:41 49.44906 17.70848 34136 ft 420 kts 307°
2026-04-26 05:42 49.48183 17.63382 34133 ft 421 kts 307°
2026-04-26 05:42 49.51454 17.55913 34137 ft 421 kts 306°
2026-04-26 05:43 49.54725 17.48424 34168 ft 420 kts 306°
2026-04-26 05:43 49.57977 17.40956 34138 ft 419 kts 306°
2026-04-26 05:44 49.61210 17.33511 34131 ft 417 kts 306°
2026-04-26 05:44 49.64406 17.26132 34127 ft 416 kts 306°
2026-04-26 05:45 49.67616 17.18700 34137 ft 417 kts 306°
2026-04-26 05:45 49.70840 17.11217 34146 ft 419 kts 306°
2026-04-26 05:46 49.74069 17.03702 34147 ft 421 kts 306°
2026-04-26 05:46 49.77312 16.96128 34149 ft 423 kts 306°
2026-04-26 05:47 49.80562 16.88515 34142 ft 424 kts 306°
2026-04-26 05:47 49.83816 16.80873 34169 ft 426 kts 306°
2026-04-26 05:48 49.87078 16.73189 34147 ft 427 kts 306°
2026-04-26 05:48 49.90341 16.65481 34152 ft 427 kts 306°
2026-04-26 05:49 49.95218 16.53919 34165 ft 427 kts 306°
2026-04-26 05:50 49.98466 16.46190 34156 ft 428 kts 306°
2026-04-26 05:50 50.01722 16.38420 34165 ft 429 kts 306°
2026-04-26 05:51 50.04955 16.30682 34175 ft 430 kts 306°
2026-04-26 05:51 50.08208 16.22874 34170 ft 430 kts 305°
2026-04-26 05:52 50.11458 16.15048 34164 ft 431 kts 305°
2026-04-26 05:52 50.14710 16.07196 34169 ft 431 kts 305°
2026-04-26 05:53 50.17957 15.99330 34175 ft 432 kts 305°
2026-04-26 05:53 50.21205 15.91440 34180 ft 432 kts 305°
2026-04-26 05:54 50.24450 15.83531 34180 ft 432 kts 305°
2026-04-26 05:54 50.27685 15.75624 34183 ft 431 kts 305°
2026-04-26 05:55 50.30907 15.67726 34177 ft 430 kts 305°
2026-04-26 05:55 50.34093 15.59889 34181 ft 429 kts 305°
2026-04-26 05:56 50.37289 15.52006 34182 ft 428 kts 305°
2026-04-26 05:56 50.40470 15.44136 34180 ft 427 kts 304°
2026-04-26 05:57 50.43661 15.36223 34194 ft 433 kts 304°
2026-04-26 05:57 50.46899 15.28168 34196 ft 438 kts 304°
2026-04-26 05:58 50.50147 15.20057 34192 ft 438 kts 304°
2026-04-26 05:58 50.53380 15.11957 34198 ft 437 kts 304°
2026-04-26 05:59 50.56599 15.03867 34192 ft 436 kts 304°
2026-04-26 05:59 50.59791 14.95824 34199 ft 436 kts 304°
2026-04-26 06:00 50.62998 14.87718 34217 ft 436 kts 304°
2026-04-26 06:00 50.66200 14.79601 34205 ft 435 kts 304°
2026-04-26 06:01 50.69445 14.71587 34205 ft 433 kts 305°
2026-04-26 06:01 50.72722 14.63616 34194 ft 432 kts 304°
2026-04-26 06:02 50.75962 14.55683 34210 ft 433 kts 304°
2026-04-26 06:02 50.79218 14.47648 34222 ft 435 kts 304°
2026-04-26 06:03 50.82482 14.39563 34223 ft 437 kts 304°
2026-04-26 06:03 50.85755 14.31437 34219 ft 438 kts 304°
2026-04-26 06:04 50.88415 14.24633 34206 ft 435 kts 300°
2026-04-26 06:04 50.90873 14.15869 34220 ft 434 kts 290°
2026-04-26 06:05 50.92539 14.06521 34209 ft 447 kts 288°
2026-04-26 06:05 50.94196 13.96953 34248 ft 451 kts 289°
2026-04-26 06:06 50.96075 13.87455 34255 ft 451 kts 291°
2026-04-26 06:06 50.98074 13.78017 34258 ft 450 kts 291°
2026-04-26 06:07 50.99979 13.68638 34260 ft 448 kts 290°
2026-04-26 06:07 51.01803 13.59203 34270 ft 446 kts 290°
2026-04-26 06:08 51.03583 13.49789 34251 ft 444 kts 289°
2026-04-26 06:08 51.05351 13.40399 34250 ft 442 kts 289°
2026-04-26 06:09 51.07114 13.31027 34237 ft 442 kts 289°
2026-04-26 06:09 51.08865 13.21695 34241 ft 444 kts 289°
2026-04-26 06:10 51.10630 13.12230 34247 ft 447 kts 289°
2026-04-26 06:10 51.12394 13.02713 34249 ft 449 kts 289°
2026-04-26 06:11 51.14162 12.93124 34259 ft 451 kts 289°
2026-04-26 06:11 51.15911 12.83593 34271 ft 451 kts 288°
2026-04-26 06:12 51.17665 12.73984 34289 ft 452 kts 288°
2026-04-26 06:12 51.19413 12.64354 34265 ft 452 kts 288°
2026-04-26 06:13 51.21151 12.54729 34267 ft 451 kts 288°
2026-04-26 06:13 51.22881 12.45099 34267 ft 451 kts 288°
2026-04-26 06:14 51.24593 12.35525 34277 ft 451 kts 288°
2026-04-26 06:14 51.26310 12.25868 34256 ft 452 kts 288°
2026-04-26 06:15 51.28019 12.16200 34261 ft 453 kts 288°
2026-04-26 06:15 51.29726 12.06491 34265 ft 454 kts 288°
2026-04-26 06:16 51.31426 11.96767 34255 ft 454 kts 287°
2026-04-26 06:16 51.33123 11.87022 34263 ft 456 kts 287°
2026-04-26 06:17 51.34805 11.77295 34266 ft 457 kts 287°
2026-04-26 06:17 51.36491 11.67488 34266 ft 457 kts 287°
2026-04-26 06:18 51.38172 11.57658 34257 ft 458 kts 287°
2026-04-26 06:18 51.39848 11.47816 34252 ft 458 kts 286°
2026-04-26 06:19 51.41515 11.37967 34261 ft 459 kts 286°
2026-04-26 06:19 51.43176 11.28083 34268 ft 459 kts 286°
2026-04-26 06:20 51.44828 11.18190 34267 ft 459 kts 286°
2026-04-26 06:20 51.46476 11.08277 34239 ft 460 kts 285°
2026-04-26 06:21 51.48118 10.98357 34256 ft 460 kts 285°
2026-04-26 06:21 51.49743 10.88464 34272 ft 461 kts 285°
2026-04-26 06:22 51.51369 10.78494 34267 ft 462 kts 285°
2026-04-26 06:22 51.52992 10.68509 34268 ft 462 kts 285°
2026-04-26 06:23 51.54508 10.58466 34266 ft 462 kts 282°
2026-04-26 06:23 51.55744 10.48306 34278 ft 463 kts 281°
2026-04-26 06:24 51.56902 10.38152 34290 ft 465 kts 281°
2026-04-26 06:24 51.58090 10.27912 34285 ft 465 kts 281°
2026-04-26 06:25 51.59299 10.17666 34286 ft 466 kts 281°
2026-04-26 06:25 51.60510 10.07416 34286 ft 466 kts 281°
2026-04-26 06:26 51.61711 9.97155 34291 ft 467 kts 280°
2026-04-26 06:26 51.62900 9.86880 34293 ft 467 kts 280°
2026-04-26 06:27 51.64070 9.76666 34307 ft 467 kts 281°
2026-04-26 06:27 51.65240 9.66386 34284 ft 466 kts 280°
2026-04-26 06:28 51.66404 9.56112 34297 ft 466 kts 280°
2026-04-26 06:28 51.67557 9.45817 34292 ft 466 kts 280°
2026-04-26 06:29 51.68699 9.35520 34297 ft 466 kts 279°
2026-04-26 06:29 51.69833 9.25223 34299 ft 467 kts 279°
2026-04-26 06:30 51.70958 9.14918 34295 ft 467 kts 279°
2026-04-26 06:30 51.72069 9.04664 34306 ft 467 kts 279°
2026-04-26 06:31 51.73177 8.94342 34310 ft 467 kts 279°
2026-04-26 06:31 51.74279 8.83992 34314 ft 467 kts 279°
2026-04-26 06:32 51.75370 8.73652 34305 ft 467 kts 279°
2026-04-26 06:32 51.76455 8.63290 34319 ft 468 kts 279°
2026-04-26 06:33 51.77530 8.52908 34316 ft 469 kts 278°
2026-04-26 06:33 51.78599 8.42500 34306 ft 470 kts 278°
2026-04-26 06:34 51.79660 8.32070 34309 ft 470 kts 278°
2026-04-26 06:34 51.80712 8.21645 34300 ft 469 kts 278°
2026-04-26 06:35 51.81750 8.11257 34316 ft 468 kts 278°
2026-04-26 06:35 51.82767 8.00972 34316 ft 465 kts 278°
2026-04-26 06:36 51.83780 7.90644 34316 ft 466 kts 278°
2026-04-26 06:36 51.84790 7.80271 34328 ft 467 kts 278°
2026-04-26 06:37 51.86055 7.69856 34320 ft 477 kts 283°
2026-04-26 06:37 51.88261 7.59690 34305 ft 478 kts 293°
2026-04-26 06:38 51.91333 7.50146 34321 ft 480 kts 298°
2026-04-26 06:38 51.94574 7.40742 34330 ft 482 kts 296°
2026-04-26 06:39 51.97574 7.31020 34320 ft 482 kts 294°
2026-04-26 06:39 52.00414 7.21175 34320 ft 481 kts 294°
2026-04-26 06:40 52.03245 7.11367 34317 ft 479 kts 294°
2026-04-26 06:40 52.06096 7.01593 34319 ft 478 kts 294°
2026-04-26 06:41 52.08908 6.91824 34331 ft 476 kts 293°
2026-04-26 06:41 52.11630 6.82029 34320 ft 475 kts 292°
2026-04-26 06:42 52.14322 6.72236 34321 ft 473 kts 290°
2026-04-26 06:42 52.16575 6.62242 34328 ft 473 kts 287°
2026-04-26 06:43 52.18700 6.52101 34327 ft 473 kts 288°
2026-04-26 06:43 52.20893 6.41943 34334 ft 474 kts 288°
2026-04-26 06:44 52.23116 6.31822 34336 ft 474 kts 288°
2026-04-26 06:44 52.25315 6.21730 34337 ft 475 kts 288°
2026-04-26 06:45 52.27521 6.11555 34339 ft 475 kts 288°
2026-04-26 06:45 52.29717 6.01391 34339 ft 474 kts 288°
2026-04-26 06:46 52.31903 5.91218 34347 ft 474 kts 288°
2026-04-26 06:46 52.34077 5.81046 34340 ft 473 kts 288°
2026-04-26 06:47 52.36240 5.70881 34346 ft 473 kts 288°
2026-04-26 06:47 52.38393 5.60719 34347 ft 472 kts 288°
2026-04-26 06:48 52.40519 5.50625 34353 ft 472 kts 288°
2026-04-26 06:48 52.42651 5.40450 34350 ft 471 kts 288°
2026-04-26 06:49 52.44767 5.30299 34340 ft 470 kts 288°
2026-04-26 06:49 52.46872 5.20150 34346 ft 469 kts 288°
2026-04-26 06:50 52.48965 5.10011 34343 ft 469 kts 288°
2026-04-26 06:50 52.51051 4.99858 34339 ft 469 kts 287°
2026-04-26 06:51 52.53153 4.89726 34335 ft 469 kts 290°
2026-04-26 06:51 52.57539 4.75593 34346 ft 464 kts 305°
2026-04-26 06:52 52.61595 4.67159 34348 ft 473 kts 307°
2026-04-26 06:52 52.64886 4.59947 34337 ft 474 kts 304°
2026-04-26 06:53 52.68622 4.50999 34344 ft 474 kts 303°
2026-04-26 06:53 52.72351 4.42040 34337 ft 473 kts 303°
2026-04-26 06:54 52.76015 4.33030 34326 ft 470 kts 300°
2026-04-26 06:54 52.79238 4.23661 34347 ft 468 kts 297°
2026-04-26 06:55 52.82285 4.14224 34345 ft 468 kts 297°
2026-04-26 06:55 52.85399 4.04779 34346 ft 468 kts 297°
2026-04-26 06:56 52.88553 3.95373 34349 ft 467 kts 298°
2026-04-26 06:56 52.91710 3.85949 34343 ft 467 kts 298°
2026-04-26 06:57 52.94841 3.76536 34355 ft 466 kts 297°
2026-04-26 06:57 52.97967 3.67100 34353 ft 466 kts 297°
2026-04-26 06:58 53.01082 3.57673 34350 ft 466 kts 297°
2026-04-26 06:58 53.04185 3.48302 34349 ft 465 kts 297°
2026-04-26 06:59 53.07312 3.38870 34348 ft 465 kts 297°
2026-04-26 06:59 53.10045 3.29261 34356 ft 456 kts 289°
2026-04-26 07:00 53.11635 3.19105 34358 ft 457 kts 279°
2026-04-26 07:00 53.12765 3.08567 34358 ft 467 kts 280°
2026-04-26 07:01 53.14093 2.97997 34345 ft 463 kts 282°
2026-04-26 07:01 53.15632 2.87657 34345 ft 458 kts 283°
2026-04-26 07:02 53.17096 2.77387 34353 ft 459 kts 282°
2026-04-26 07:02 53.18445 2.66989 34350 ft 459 kts 281°
2026-04-26 07:03 53.19764 2.56558 34353 ft 460 kts 281°
2026-04-26 07:03 53.21093 2.46093 34353 ft 460 kts 282°
2026-04-26 07:04 53.22404 2.35641 34347 ft 459 kts 281°
2026-04-26 07:04 53.23698 2.25216 34356 ft 458 kts 281°
2026-04-26 07:05 53.24981 2.14808 34345 ft 458 kts 281°
2026-04-26 07:05 53.26246 2.04465 34349 ft 457 kts 281°
2026-04-26 07:06 53.27506 1.94090 34351 ft 455 kts 281°
2026-04-26 07:06 53.28754 1.83734 34349 ft 454 kts 281°
2026-04-26 07:07 53.29989 1.73407 34346 ft 452 kts 281°
2026-04-26 07:07 53.31213 1.63095 34352 ft 452 kts 281°
2026-04-26 07:08 53.32428 1.52780 34345 ft 452 kts 281°
2026-04-26 07:08 53.33752 1.42512 34350 ft 451 kts 283°
2026-04-26 07:09 53.35285 1.32336 34353 ft 451 kts 284°
2026-04-26 07:09 53.36817 1.22174 34351 ft 450 kts 284°
2026-04-26 07:11 53.40465 0.96678 34358 ft 449 kts 283°
2026-04-26 07:11 53.41898 0.86489 34350 ft 449 kts 283°
2026-04-26 07:12 53.43325 0.76294 34347 ft 448 kts 283°
2026-04-26 07:12 53.44731 0.66185 34352 ft 448 kts 283°
2026-04-26 07:13 53.46137 0.56000 34352 ft 448 kts 283°
2026-04-26 07:13 53.47538 0.45803 34351 ft 448 kts 283°
2026-04-26 07:14 53.48929 0.35609 34349 ft 447 kts 283°
2026-04-26 07:14 53.50319 0.25423 34350 ft 447 kts 283°
2026-04-26 07:15 53.51702 0.15238 34349 ft 447 kts 283°
2026-04-26 07:15 53.53062 0.05112 34350 ft 447 kts 282°
2026-04-26 07:16 53.54405 -0.05084 34362 ft 446 kts 282°
2026-04-26 07:16 53.55739 -0.15291 34372 ft 446 kts 282°
2026-04-26 07:17 53.57064 -0.25474 34376 ft 446 kts 282°
2026-04-26 07:17 53.58381 -0.35654 34374 ft 446 kts 282°
2026-04-26 07:18 53.59685 -0.45781 34373 ft 445 kts 282°
2026-04-26 07:18 53.60990 -0.55975 34370 ft 445 kts 282°
2026-04-26 07:19 53.62286 -0.66173 34370 ft 445 kts 282°
2026-04-26 07:19 53.63574 -0.76394 34356 ft 446 kts 282°
2026-04-26 07:20 53.64854 -0.86610 34350 ft 445 kts 281°
2026-04-26 07:20 53.66126 -0.96832 34341 ft 445 kts 281°
2026-04-26 07:21 53.67392 -1.07058 34347 ft 445 kts 281°
2026-04-26 07:21 53.68643 -1.17233 34342 ft 445 kts 281°
2026-04-26 07:22 53.69891 -1.27482 34332 ft 445 kts 281°
2026-04-26 07:22 53.71133 -1.37739 34330 ft 445 kts 281°
2026-04-26 07:23 53.72353 -1.47990 34324 ft 445 kts 280°
2026-04-26 07:23 53.73522 -1.58253 34339 ft 445 kts 280°
2026-04-26 07:24 53.74663 -1.68549 34330 ft 446 kts 279°
2026-04-26 07:24 53.75777 -1.78853 34320 ft 446 kts 279°
2026-04-26 07:25 53.76878 -1.89104 34327 ft 446 kts 279°
2026-04-26 07:25 53.77980 -1.99416 34326 ft 446 kts 279°
2026-04-26 07:26 53.79076 -2.09737 34309 ft 446 kts 279°
2026-04-26 07:26 53.80166 -2.20069 34317 ft 445 kts 279°
2026-04-26 07:27 53.81243 -2.30396 34299 ft 445 kts 279°
2026-04-26 07:27 53.82309 -2.40711 34312 ft 445 kts 279°
2026-04-26 07:28 53.83367 -2.51033 34298 ft 445 kts 279°
2026-04-26 07:28 53.84417 -2.61369 34304 ft 444 kts 278°
2026-04-26 07:29 53.85457 -2.71687 34306 ft 445 kts 278°
2026-04-26 07:29 53.86482 -2.81965 34291 ft 445 kts 278°
2026-04-26 07:30 53.87504 -2.92305 34296 ft 445 kts 278°
2026-04-26 07:30 53.88518 -3.02653 34291 ft 445 kts 278°
2026-04-26 07:31 53.89524 -3.13018 34292 ft 445 kts 278°
2026-04-26 07:31 53.90521 -3.23381 34289 ft 446 kts 278°
2026-04-26 07:32 53.91511 -3.33769 34289 ft 446 kts 278°
2026-04-26 07:32 53.92486 -3.44100 34285 ft 446 kts 278°
2026-04-26 07:33 53.93490 -3.54501 34279 ft 447 kts 279°
2026-04-26 07:33 53.94661 -3.64878 34285 ft 448 kts 279°
2026-04-26 07:34 53.95872 -3.75258 34278 ft 448 kts 279°
2026-04-26 07:34 53.97050 -3.85666 34271 ft 448 kts 279°
2026-04-26 07:35 53.98197 -3.96076 34271 ft 448 kts 279°
2026-04-26 07:35 53.99330 -4.06496 34261 ft 448 kts 279°
2026-04-26 07:36 54.00457 -4.16927 34260 ft 448 kts 278°
2026-04-26 07:36 54.01570 -4.27289 34263 ft 448 kts 278°
2026-04-26 07:37 54.02683 -4.37740 34266 ft 448 kts 278°
2026-04-26 07:37 54.03784 -4.48194 34270 ft 449 kts 278°
2026-04-26 07:38 54.04877 -4.58648 34263 ft 449 kts 278°
2026-04-26 07:38 54.05962 -4.69111 34257 ft 449 kts 278°
2026-04-26 07:39 54.07088 -4.79562 34254 ft 449 kts 279°
2026-04-26 07:39 54.08462 -4.89949 34248 ft 450 kts 281°
2026-04-26 07:40 54.09908 -5.00265 34243 ft 450 kts 281°
2026-04-26 07:40 54.11337 -5.10638 34254 ft 450 kts 281°
2026-04-26 07:41 54.12730 -5.21032 34249 ft 450 kts 280°
2026-04-26 07:41 54.14103 -5.31445 34264 ft 450 kts 280°
2026-04-26 07:42 54.15238 -5.40100 34252 ft 450 kts 280°
2026-04-26 07:42 54.16594 -5.50514 34252 ft 449 kts 280°
2026-04-26 07:43 54.17948 -5.60986 34255 ft 449 kts 279°
2026-04-26 07:43 54.19275 -5.71317 34255 ft 448 kts 279°
2026-04-26 07:44 54.20601 -5.81713 34255 ft 448 kts 279°
2026-04-26 07:44 54.21920 -5.92135 34257 ft 448 kts 279°
2026-04-26 07:45 54.23228 -6.02553 34256 ft 448 kts 279°
2026-04-26 07:45 54.24530 -6.12986 34251 ft 448 kts 279°
2026-04-26 07:46 54.25822 -6.23426 34252 ft 448 kts 279°
2026-04-26 07:46 54.27106 -6.33882 34247 ft 449 kts 279°
2026-04-26 07:47 54.28382 -6.44342 34255 ft 449 kts 279°
2026-04-26 07:47 54.29648 -6.54803 34243 ft 449 kts 278°
2026-04-26 07:48 54.30895 -6.65202 34253 ft 448 kts 278°
2026-04-26 07:48 54.32141 -6.75666 34258 ft 449 kts 278°
2026-04-26 07:49 54.33378 -6.86144 34248 ft 449 kts 278°
2026-04-26 07:49 54.34607 -6.96626 34259 ft 449 kts 278°
2026-04-26 07:50 54.36434 -7.12368 34240 ft 449 kts 278°
2026-04-26 07:50 54.37638 -7.22862 34240 ft 448 kts 278°
2026-04-26 07:51 54.38833 -7.33353 34242 ft 448 kts 278°
2026-04-26 07:51 54.40019 -7.43855 34242 ft 448 kts 277°
2026-04-26 07:52 54.41197 -7.54365 34247 ft 449 kts 277°
2026-04-26 07:52 54.42361 -7.64824 34243 ft 449 kts 277°
2026-04-26 07:53 54.43521 -7.75360 34239 ft 449 kts 277°
2026-04-26 07:53 54.44674 -7.85917 34246 ft 449 kts 277°
2026-04-26 07:54 54.45819 -7.96489 34245 ft 450 kts 277°
2026-04-26 07:54 54.46955 -8.07069 34248 ft 450 kts 277°
2026-04-26 07:55 54.48084 -8.17658 34270 ft 450 kts 276°
2026-04-26 07:55 54.49204 -8.28267 34255 ft 451 kts 276°
2026-04-26 07:56 54.50314 -8.38894 34248 ft 451 kts 276°
2026-04-26 07:56 54.51409 -8.49455 34247 ft 451 kts 276°
2026-04-26 07:57 54.52502 -8.60101 34251 ft 451 kts 276°
2026-04-26 07:57 54.53586 -8.70747 34239 ft 452 kts 276°
2026-04-26 07:58 54.54662 -8.81406 34254 ft 452 kts 276°
2026-04-26 07:58 54.55727 -8.92074 34257 ft 452 kts 276°
2026-04-26 07:59 54.56784 -9.02747 34251 ft 452 kts 276°
2026-04-26 07:59 54.57832 -9.13431 34252 ft 452 kts 276°
2026-04-26 08:00 54.58865 -9.24066 34250 ft 452 kts 276°
2026-04-26 08:00 54.59895 -9.34773 34248 ft 453 kts 275°
2026-04-26 08:01 54.60920 -9.45506 34248 ft 453 kts 275°
2026-04-26 08:01 54.61956 -9.56236 34250 ft 454 kts 276°
2026-04-26 08:02 54.63075 -9.66973 34255 ft 455 kts 277°
2026-04-26 08:02 54.64210 -9.77726 34258 ft 455 kts 277°
2026-04-26 08:03 54.65325 -9.88478 34250 ft 455 kts 277°
2026-04-26 08:03 54.66415 -9.99181 34246 ft 455 kts 276°
2026-04-26 08:04 54.67498 -10.09951 34247 ft 454 kts 276°
2026-04-26 08:04 54.68571 -10.20716 34243 ft 454 kts 276°
2026-04-26 08:05 54.69633 -10.31485 34259 ft 454 kts 277°
2026-04-26 08:05 54.70684 -10.42248 34243 ft 454 kts 277°
2026-04-26 08:06 54.71719 -10.52940 34239 ft 453 kts 276°
2026-04-26 08:06 54.72752 -10.63689 34239 ft 453 kts 276°
2026-04-26 08:07 54.73774 -10.74446 34238 ft 452 kts 276°
2026-04-26 08:07 54.74784 -10.85187 34239 ft 452 kts 276°
2026-04-26 08:08 54.75785 -10.95951 34241 ft 453 kts 277°
2026-04-26 08:08 54.76776 -11.06714 34250 ft 453 kts 277°
2026-04-26 08:09 54.77761 -11.17492 34239 ft 453 kts 276°
2026-04-26 08:09 54.78729 -11.28197 34234 ft 452 kts 276°
2026-04-26 08:10 54.79691 -11.38952 34232 ft 451 kts 276°
2026-04-26 08:10 54.80642 -11.49700 34230 ft 451 kts 276°
2026-04-26 08:11 54.81585 -11.60463 34226 ft 451 kts 276°
2026-04-26 08:11 54.82516 -11.71216 34226 ft 451 kts 276°
2026-04-26 08:12 54.83438 -11.81969 34227 ft 451 kts 276°
2026-04-26 08:12 54.84351 -11.92735 34222 ft 451 kts 276°
2026-04-26 08:13 54.85255 -12.03514 34232 ft 451 kts 276°
2026-04-26 08:13 54.86148 -12.14292 34219 ft 450 kts 276°
2026-04-26 08:14 54.87030 -12.25041 34216 ft 449 kts 276°
2026-04-26 08:14 54.87896 -12.35709 34215 ft 449 kts 276°
2026-04-26 08:15 54.88757 -12.46444 34243 ft 448 kts 275°
2026-04-26 08:15 54.89607 -12.57154 34219 ft 447 kts 275°
2026-04-26 08:16 54.90444 -12.67843 34207 ft 445 kts 275°
2026-04-26 08:16 54.91268 -12.78494 34206 ft 444 kts 275°
2026-04-26 08:17 54.92083 -12.89140 34200 ft 444 kts 275°
2026-04-26 08:17 54.92888 -12.99780 34205 ft 444 kts 275°
2026-04-26 08:18 54.93685 -13.10440 34204 ft 444 kts 275°
2026-04-26 08:18 54.94473 -13.21118 34207 ft 445 kts 275°
2026-04-26 08:19 54.95247 -13.31749 34200 ft 445 kts 275°
2026-04-26 08:19 54.96018 -13.42441 34195 ft 445 kts 275°
2026-04-26 08:20 54.96780 -13.53140 34192 ft 445 kts 275°
2026-04-26 08:20 54.97531 -13.63835 34193 ft 445 kts 275°
2026-04-26 08:21 54.98274 -13.74548 34193 ft 445 kts 275°
2026-04-26 08:21 54.99005 -13.85247 34194 ft 445 kts 275°
2026-04-26 08:22 54.99730 -13.95945 34181 ft 444 kts 275°
2026-04-26 08:22 55.00197 -14.06582 34201 ft 437 kts 270°
2026-04-26 08:23 55.00165 -14.17095 34195 ft 437 kts 268°
2026-04-26 08:23 55.00091 -14.27683 34181 ft 438 kts 269°
2026-04-26 08:24 55.00080 -14.38300 34183 ft 439 kts 269°
2026-04-26 08:24 55.00092 -14.48934 34187 ft 439 kts 270°
2026-04-26 08:25 55.00096 -14.59588 34195 ft 440 kts 269°
2026-04-26 08:25 55.00085 -14.70249 34179 ft 440 kts 269°
2026-04-26 08:26 55.00063 -14.80911 34171 ft 440 kts 269°
2026-04-26 08:26 55.00041 -14.91570 34182 ft 440 kts 270°
2026-04-26 08:27 55.00525 -15.02189 34159 ft 437 kts 278°
2026-04-26 08:27 55.02439 -15.12144 34193 ft 441 kts 294°
2026-04-26 08:28 55.04778 -15.20048 34168 ft 437 kts 293°
2026-04-26 08:28 55.07402 -15.31527 34191 ft 444 kts 287°
2026-04-26 08:29 55.09092 -15.40053 34187 ft 447 kts 287°
2026-04-26 08:29 55.11209 -15.50273 34165 ft 447 kts 288°
2026-04-26 08:30 55.13413 -15.60418 34162 ft 445 kts 289°
2026-04-26 08:30 55.15629 -15.70479 34179 ft 442 kts 289°
2026-04-26 08:31 55.17826 -15.80505 34175 ft 440 kts 289°
2026-04-26 08:31 55.19997 -15.90496 34163 ft 439 kts 289°
2026-04-26 08:32 55.22153 -16.00490 34164 ft 438 kts 289°
2026-04-26 08:32 55.24302 -16.10501 34199 ft 439 kts 288°
2026-04-26 08:33 55.26432 -16.20467 34151 ft 439 kts 289°
2026-04-26 08:33 55.28566 -16.30507 34165 ft 438 kts 288°
2026-04-26 08:34 55.30687 -16.40530 34162 ft 438 kts 288°
2026-04-26 08:34 55.32799 -16.50560 34157 ft 437 kts 288°
2026-04-26 08:35 55.34889 -16.60535 34157 ft 437 kts 288°
2026-04-26 08:35 55.36982 -16.70574 34158 ft 437 kts 288°
2026-04-26 08:36 55.39066 -16.80623 34156 ft 437 kts 288°
2026-04-26 08:36 55.41148 -16.90707 34182 ft 437 kts 288°
2026-04-26 08:37 55.43216 -17.00778 34160 ft 437 kts 288°
2026-04-26 08:37 55.45272 -17.10837 34148 ft 436 kts 288°
2026-04-26 08:38 55.47301 -17.20821 34152 ft 435 kts 288°
2026-04-26 08:38 55.49332 -17.30863 34155 ft 434 kts 288°
2026-04-26 08:39 55.51349 -17.40885 34148 ft 434 kts 288°
2026-04-26 08:39 55.53361 -17.50933 34144 ft 434 kts 288°
2026-04-26 08:40 55.55364 -17.60992 34147 ft 434 kts 288°
2026-04-26 08:40 55.57363 -17.71074 34156 ft 435 kts 287°
2026-04-26 08:41 55.59339 -17.81096 34143 ft 435 kts 287°
2026-04-26 08:41 55.61321 -17.91200 34144 ft 434 kts 287°
2026-04-26 08:42 55.63289 -18.01290 34130 ft 434 kts 287°
2026-04-26 08:42 55.65248 -18.11380 34143 ft 433 kts 287°
2026-04-26 08:43 55.67199 -18.21483 34136 ft 433 kts 287°
2026-04-26 08:43 55.69138 -18.31585 34135 ft 433 kts 287°
2026-04-26 08:44 55.71069 -18.41689 34134 ft 433 kts 287°
2026-04-26 08:44 55.72993 -18.51807 34128 ft 433 kts 287°
2026-04-26 08:45 55.74909 -18.61940 34133 ft 433 kts 287°
2026-04-26 08:45 55.76805 -18.72023 34125 ft 432 kts 287°
2026-04-26 08:46 55.78699 -18.82153 34130 ft 432 kts 287°
2026-04-26 08:46 55.80587 -18.92300 34122 ft 432 kts 287°
2026-04-26 08:47 55.82462 -19.02437 34141 ft 431 kts 287°
2026-04-26 08:47 55.84331 -19.12593 34133 ft 431 kts 287°
2026-04-26 08:48 55.86192 -19.22755 34124 ft 432 kts 287°
2026-04-26 08:48 55.88038 -19.32892 34135 ft 432 kts 286°
2026-04-26 08:49 55.89883 -19.43084 34120 ft 432 kts 286°
2026-04-26 08:49 55.91718 -19.53278 34122 ft 431 kts 286°
2026-04-26 08:50 55.93532 -19.63411 34107 ft 431 kts 286°
2026-04-26 08:50 55.95352 -19.73633 34116 ft 431 kts 286°
2026-04-26 08:51 55.98058 -19.88933 34118 ft 431 kts 286°
2026-04-26 08:52 55.99854 -19.99151 34112 ft 431 kts 286°
2026-04-26 08:52 56.01482 -20.09432 34132 ft 430 kts 283°
2026-04-26 08:53 56.02909 -20.19829 34119 ft 431 kts 283°
2026-04-26 08:53 56.04323 -20.30237 34099 ft 431 kts 283°
2026-04-26 08:54 56.05762 -20.40637 34110 ft 431 kts 283°
2026-04-26 08:54 56.07203 -20.50975 34113 ft 431 kts 283°
2026-04-26 08:55 56.08652 -20.61401 34109 ft 431 kts 283°
2026-04-26 08:55 56.10091 -20.71836 34110 ft 431 kts 283°
2026-04-26 08:56 56.11519 -20.82273 34106 ft 431 kts 283°
2026-04-26 08:56 56.12938 -20.92726 34107 ft 431 kts 283°
2026-04-26 08:57 56.14348 -21.03190 34116 ft 431 kts 283°
2026-04-26 08:57 56.15750 -21.13655 34107 ft 432 kts 283°
2026-04-26 08:58 56.17143 -21.24131 34102 ft 432 kts 283°
2026-04-26 08:58 56.18528 -21.34621 34099 ft 431 kts 283°
2026-04-26 08:59 56.19903 -21.45112 34101 ft 431 kts 283°
2026-04-26 08:59 56.21259 -21.55535 34102 ft 431 kts 282°
2026-04-26 09:00 56.22615 -21.66028 34077 ft 431 kts 283°
2026-04-26 09:00 56.23959 -21.76519 34093 ft 431 kts 282°
2026-04-26 09:01 56.25298 -21.87028 34101 ft 431 kts 282°
2026-04-26 09:01 56.26630 -21.97557 34091 ft 432 kts 282°
2026-04-26 09:02 56.27952 -22.08094 34101 ft 432 kts 282°
2026-04-26 09:02 56.29266 -22.18649 34092 ft 432 kts 282°
2026-04-26 09:03 56.30572 -22.29214 34089 ft 432 kts 282°
2026-04-26 09:03 56.31866 -22.39770 34079 ft 431 kts 282°
2026-04-26 09:04 56.33150 -22.50325 34078 ft 431 kts 282°
2026-04-26 09:04 56.34425 -22.60880 34086 ft 430 kts 282°
2026-04-26 09:05 56.35689 -22.71425 34088 ft 430 kts 282°
2026-04-26 09:05 56.36938 -22.81923 34103 ft 430 kts 282°
2026-04-26 09:06 56.38186 -22.92495 34090 ft 430 kts 282°
2026-04-26 09:06 56.39426 -23.03084 34082 ft 429 kts 281°
2026-04-26 09:07 56.40645 -23.13587 34067 ft 425 kts 281°
2026-04-26 09:07 56.41840 -23.23953 34079 ft 424 kts 281°
2026-04-26 09:08 56.43031 -23.34382 34078 ft 424 kts 281°
2026-04-26 09:08 56.44215 -23.44816 34082 ft 423 kts 281°
2026-04-26 09:09 56.45390 -23.55260 34080 ft 424 kts 281°
2026-04-26 09:09 56.46557 -23.65720 34074 ft 423 kts 281°
2026-04-26 09:10 56.47714 -23.76166 34047 ft 422 kts 281°
2026-04-26 09:10 56.48858 -23.86586 34078 ft 421 kts 281°
2026-04-26 09:11 56.49989 -23.96979 34075 ft 421 kts 281°
2026-04-26 09:11 56.51108 -24.07341 34069 ft 422 kts 281°
2026-04-26 09:12 56.52233 -24.17859 34083 ft 430 kts 281°
2026-04-26 09:12 56.53368 -24.28548 34062 ft 429 kts 280°
2026-04-26 09:13 56.54477 -24.39071 34063 ft 423 kts 280°
2026-04-26 09:13 56.55572 -24.49563 34083 ft 423 kts 280°
2026-04-26 09:14 56.56659 -24.60070 34078 ft 424 kts 280°
2026-04-26 09:14 56.57730 -24.70497 34065 ft 422 kts 280°
2026-04-26 09:15 56.58795 -24.80975 34072 ft 422 kts 280°
2026-04-26 09:15 56.59849 -24.91448 34067 ft 422 kts 279°
2026-04-26 09:16 56.60896 -25.01937 34053 ft 421 kts 279°
2026-04-26 09:16 56.61934 -25.12426 34069 ft 422 kts 279°
2026-04-26 09:17 56.62962 -25.22905 34057 ft 422 kts 279°
2026-04-26 09:17 56.63980 -25.33378 34048 ft 420 kts 279°
2026-04-26 09:18 56.64818 -25.42082 34042 ft 421 kts 279°
2026-04-26 09:18 56.65821 -25.52574 34065 ft 421 kts 279°
2026-04-26 09:19 56.66815 -25.63075 34068 ft 424 kts 279°
2026-04-26 09:19 56.67804 -25.73625 34054 ft 424 kts 279°
2026-04-26 09:20 56.68784 -25.84177 34047 ft 423 kts 279°
2026-04-26 09:20 56.69754 -25.94722 34039 ft 422 kts 278°
2026-04-26 09:21 56.70712 -26.05244 34031 ft 420 kts 278°
2026-04-26 09:21 56.71655 -26.15701 34037 ft 422 kts 278°
2026-04-26 09:22 56.72597 -26.26246 34031 ft 421 kts 278°
2026-04-26 09:22 56.73531 -26.36803 34018 ft 421 kts 278°
2026-04-26 09:23 56.74448 -26.47286 34025 ft 422 kts 278°
2026-04-26 09:23 56.75364 -26.57846 34049 ft 425 kts 278°
2026-04-26 09:24 56.76273 -26.68446 34045 ft 424 kts 277°
2026-04-26 09:24 56.77174 -26.79060 34012 ft 422 kts 277°
2026-04-26 09:25 56.78063 -26.89650 34039 ft 422 kts 277°
2026-04-26 09:25 56.78942 -27.00233 34030 ft 423 kts 277°
2026-04-26 09:26 56.79814 -27.10830 33997 ft 423 kts 277°
2026-04-26 09:26 56.80676 -27.21434 34003 ft 421 kts 277°
2026-04-26 09:27 56.81524 -27.31969 33999 ft 421 kts 276°
2026-04-26 09:27 56.82368 -27.42580 33992 ft 421 kts 276°
2026-04-26 09:28 56.83204 -27.53202 34028 ft 426 kts 276°
2026-04-26 09:28 56.84035 -27.63894 34008 ft 425 kts 276°
2026-04-26 09:29 56.84856 -27.74565 33973 ft 424 kts 276°
2026-04-26 09:29 56.85668 -27.85250 33990 ft 424 kts 276°
2026-04-26 09:30 56.86471 -27.95924 33986 ft 422 kts 276°
2026-04-26 09:30 56.87258 -28.06523 33977 ft 422 kts 275°
2026-04-26 09:31 56.88043 -28.17228 33970 ft 423 kts 275°
2026-04-26 09:31 56.88818 -28.27923 33985 ft 425 kts 275°
2026-04-26 09:32 56.89587 -28.38654 33985 ft 427 kts 275°
2026-04-26 09:32 56.90347 -28.49424 33978 ft 432 kts 274°
2026-04-26 09:33 56.91103 -28.60228 33967 ft 424 kts 274°
2026-04-26 09:33 56.91845 -28.71000 33965 ft 425 kts 274°
2026-04-26 09:34 56.92580 -28.81805 33955 ft 427 kts 274°
2026-04-26 09:34 56.93308 -28.92652 33945 ft 430 kts 274°
2026-04-26 09:35 56.94022 -29.03402 33964 ft 431 kts 273°
2026-04-26 09:35 56.94731 -29.14256 33962 ft 429 kts 273°
2026-04-26 09:36 56.95433 -29.25140 33942 ft 427 kts 273°
2026-04-26 09:36 56.96124 -29.36019 33942 ft 431 kts 273°
2026-04-26 09:37 56.96810 -29.46970 33961 ft 438 kts 273°
2026-04-26 09:37 56.97496 -29.58019 33940 ft 433 kts 272°
2026-04-26 09:38 56.98168 -29.69080 33930 ft 436 kts 272°
2026-04-26 09:38 56.98826 -29.80029 33937 ft 438 kts 272°
2026-04-26 09:39 56.99482 -29.91100 33924 ft 433 kts 272°
2026-04-26 09:39 57.00117 -30.02148 33924 ft 439 kts 271°
2026-04-26 09:40 57.00584 -30.13355 33908 ft 437 kts 270°
2026-04-26 09:40 57.00974 -30.24386 33908 ft 431 kts 269°
2026-04-26 09:41 57.01368 -30.35408 33907 ft 435 kts 269°
2026-04-26 09:41 57.01765 -30.46470 33911 ft 438 kts 269°
2026-04-26 09:42 57.02165 -30.57667 33900 ft 440 kts 269°
2026-04-26 09:42 57.02558 -30.68892 33890 ft 441 kts 269°
2026-04-26 09:43 57.02942 -30.80127 33886 ft 440 kts 269°
2026-04-26 09:43 57.03314 -30.91344 33889 ft 439 kts 269°
2026-04-26 09:44 57.03673 -31.02461 33884 ft 436 kts 268°
2026-04-26 09:44 57.04019 -31.13620 33885 ft 439 kts 268°
2026-04-26 09:45 57.04359 -31.24805 33868 ft 437 kts 268°
2026-04-26 09:45 57.04685 -31.35991 33877 ft 441 kts 267°
2026-04-26 09:46 57.05006 -31.47301 33873 ft 445 kts 268°
2026-04-26 09:46 57.05322 -31.58689 33872 ft 447 kts 268°
2026-04-26 09:47 57.05631 -31.70094 33860 ft 447 kts 268°
2026-04-26 09:47 57.05926 -31.81408 33847 ft 445 kts 267°
2026-04-26 09:48 57.06210 -31.92742 33847 ft 443 kts 267°
2026-04-26 09:48 57.06481 -32.04043 33848 ft 442 kts 267°
2026-04-26 09:49 57.06741 -32.15309 33833 ft 441 kts 267°
2026-04-26 09:49 57.06991 -32.26570 33839 ft 440 kts 267°
2026-04-26 09:50 57.07232 -32.37783 33847 ft 437 kts 266°
2026-04-26 09:50 57.07457 -32.49124 33845 ft 450 kts 266°
2026-04-26 09:51 57.07678 -32.60629 33820 ft 454 kts 266°
2026-04-26 09:51 57.07899 -32.72206 33814 ft 452 kts 266°
2026-04-26 09:52 57.08107 -32.83721 33802 ft 450 kts 266°
2026-04-26 09:52 57.08392 -33.00851 33793 ft 444 kts 266°
2026-04-26 09:53 57.08564 -33.12211 33801 ft 447 kts 266°
2026-04-26 09:53 57.08726 -33.23764 33792 ft 454 kts 266°
2026-04-26 09:54 57.08886 -33.35308 33804 ft 454 kts 266°
2026-04-26 09:54 57.09033 -33.46788 33807 ft 452 kts 265°
2026-04-26 09:55 57.09169 -33.58366 33778 ft 449 kts 265°
2026-04-26 09:55 57.09293 -33.69970 33771 ft 453 kts 265°
2026-04-26 09:56 57.09408 -33.81551 33793 ft 455 kts 265°
2026-04-26 09:56 57.09512 -33.93213 33779 ft 457 kts 265°
2026-04-26 09:57 57.09607 -34.04891 33774 ft 455 kts 265°
2026-04-26 09:57 57.09689 -34.16645 33756 ft 457 kts 265°
2026-04-26 09:58 57.09761 -34.28339 33762 ft 462 kts 264°
2026-04-26 09:58 57.09823 -34.40089 33736 ft 458 kts 264°
2026-04-26 09:59 57.09868 -34.49793 33766 ft 459 kts 265°
2026-04-26 09:59 57.09909 -34.63704 33765 ft 470 kts 264°
2026-04-26 10:00 57.09944 -34.75639 33747 ft 460 kts 264°
2026-04-26 10:00 57.09962 -34.87505 33719 ft 462 kts 264°
2026-04-26 10:01 57.09967 -34.99359 33734 ft 465 kts 264°
2026-04-26 10:01 57.09962 -35.11132 33723 ft 465 kts 264°
2026-04-26 10:02 57.09947 -35.22961 33729 ft 462 kts 264°
2026-04-26 10:02 57.09916 -35.34870 33714 ft 466 kts 264°
2026-04-26 10:03 57.09879 -35.46809 33701 ft 465 kts 263°
2026-04-26 10:03 57.09825 -35.58803 33699 ft 474 kts 264°
2026-04-26 10:04 57.09761 -35.70951 33696 ft 472 kts 264°
2026-04-26 10:04 57.09695 -35.82932 33673 ft 466 kts 264°
2026-04-26 10:05 57.09611 -35.94868 33689 ft 466 kts 264°
2026-04-26 10:05 57.09514 -36.06766 33676 ft 470 kts 263°
2026-04-26 10:06 57.09404 -36.18815 33669 ft 473 kts 263°
2026-04-26 10:06 57.09286 -36.30883 33673 ft 469 kts 263°
2026-04-26 10:07 57.09177 -36.40897 33664 ft 472 kts 263°
2026-04-26 10:07 57.09037 -36.52889 33666 ft 471 kts 263°
2026-04-26 10:08 57.08879 -36.64998 33668 ft 475 kts 264°
2026-04-26 10:08 57.08714 -36.77176 33645 ft 478 kts 263°
2026-04-26 10:09 57.08538 -36.89398 33650 ft 478 kts 263°
2026-04-26 10:09 57.08352 -37.01581 33637 ft 471 kts 263°
2026-04-26 10:10 57.08155 -37.13535 33653 ft 472 kts 263°
2026-04-26 10:10 57.07939 -37.25651 33652 ft 475 kts 263°
2026-04-26 10:11 57.07717 -37.37729 33642 ft 473 kts 263°
2026-04-26 10:11 57.07480 -37.49849 33654 ft 477 kts 263°
2026-04-26 10:12 57.07228 -37.62103 33651 ft 481 kts 263°
2026-04-26 10:12 57.06966 -37.74408 33628 ft 477 kts 263°
2026-04-26 10:13 57.06700 -37.86506 33607 ft 473 kts 263°
2026-04-26 10:13 57.06418 -37.98589 33614 ft 472 kts 263°
2026-04-26 10:14 57.06124 -38.10647 33618 ft 473 kts 263°
2026-04-26 10:14 57.05818 -38.22680 33623 ft 476 kts 263°
2026-04-26 10:15 57.05499 -38.34854 33596 ft 475 kts 263°
2026-04-26 10:15 57.05170 -38.47004 33607 ft 476 kts 262°
2026-04-26 10:16 57.04826 -38.59192 33625 ft 476 kts 263°
2026-04-26 10:16 57.04468 -38.71377 33617 ft 480 kts 263°
2026-04-26 10:17 57.04098 -38.83663 33615 ft 482 kts 263°
2026-04-26 10:17 57.03719 -38.95973 33618 ft 482 kts 263°
2026-04-26 10:18 57.03326 -39.08251 33602 ft 481 kts 263°
2026-04-26 10:18 57.02922 -39.20496 33594 ft 480 kts 263°
2026-04-26 10:19 57.02508 -39.32627 33575 ft 478 kts 263°
2026-04-26 10:19 57.02083 -39.44771 33610 ft 476 kts 262°
2026-04-26 10:20 57.01646 -39.56904 33601 ft 474 kts 262°
2026-04-26 10:20 57.01195 -39.69013 33595 ft 478 kts 263°
2026-04-26 10:21 57.00732 -39.81228 33594 ft 482 kts 263°
2026-04-26 10:21 57.00258 -39.93534 33593 ft 484 kts 263°
2026-04-26 10:22 56.99728 -40.05818 33585 ft 482 kts 261°
2026-04-26 10:22 56.99004 -40.17974 33578 ft 483 kts 260°
2026-04-26 10:23 56.98223 -40.30232 33593 ft 484 kts 260°
2026-04-26 10:23 56.97453 -40.42529 33571 ft 486 kts 260°
2026-04-26 10:24 56.96691 -40.54829 33578 ft 486 kts 261°
2026-04-26 10:24 56.95921 -40.67140 33590 ft 486 kts 261°
2026-04-26 10:25 56.95140 -40.79380 33575 ft 486 kts 261°
2026-04-26 10:25 56.94341 -40.91682 33577 ft 486 kts 261°
2026-04-26 10:26 56.93530 -41.03985 33579 ft 488 kts 261°
2026-04-26 10:26 56.92703 -41.16341 33576 ft 489 kts 261°
2026-04-26 10:27 56.91862 -41.28722 33578 ft 491 kts 260°
2026-04-26 10:27 56.91008 -41.41113 33573 ft 491 kts 260°
2026-04-26 10:28 56.90143 -41.53473 33572 ft 489 kts 260°
2026-04-26 10:28 56.89266 -41.65832 33589 ft 489 kts 259°
2026-04-26 10:29 56.88374 -41.78179 33579 ft 492 kts 260°
2026-04-26 10:29 56.87467 -41.90553 33572 ft 497 kts 260°
2026-04-26 10:30 56.86537 -42.03119 33574 ft 500 kts 260°
2026-04-26 10:30 56.85594 -42.15705 33572 ft 499 kts 260°
2026-04-26 10:31 56.84639 -42.28257 33562 ft 497 kts 260°
2026-04-26 10:31 56.83678 -42.40690 33579 ft 499 kts 260°
2026-04-26 10:32 56.82691 -42.53274 33575 ft 502 kts 261°
2026-04-26 10:32 56.81689 -42.65910 33574 ft 503 kts 261°
2026-04-26 10:33 56.80677 -42.78526 33564 ft 502 kts 261°
2026-04-26 10:33 56.79652 -42.91089 33562 ft 500 kts 261°
2026-04-26 10:34 56.78614 -43.03649 33592 ft 499 kts 261°
2026-04-26 10:34 56.77564 -43.16206 33575 ft 502 kts 261°
2026-04-26 10:35 56.76501 -43.28809 33580 ft 504 kts 261°
2026-04-26 10:35 56.75422 -43.41457 33583 ft 505 kts 261°
2026-04-26 10:36 56.74329 -43.54078 33580 ft 504 kts 261°
2026-04-26 10:36 56.73222 -43.66688 33588 ft 504 kts 261°
2026-04-26 10:37 56.72108 -43.79206 33595 ft 504 kts 261°
2026-04-26 10:37 56.70974 -43.91819 33594 ft 505 kts 261°
2026-04-26 10:38 56.69828 -44.04433 33584 ft 506 kts 261°
2026-04-26 10:38 56.68669 -44.17044 33590 ft 506 kts 261°
2026-04-26 10:39 56.67496 -44.29651 33593 ft 505 kts 261°
2026-04-26 10:39 56.66310 -44.42232 33605 ft 505 kts 261°
2026-04-26 10:40 56.65109 -44.54829 33592 ft 506 kts 261°
2026-04-26 10:40 56.63897 -44.67424 33585 ft 506 kts 261°
2026-04-26 10:41 56.62673 -44.80018 33590 ft 506 kts 261°
2026-04-26 10:41 56.61443 -44.92526 33585 ft 506 kts 261°
2026-04-26 10:42 56.60194 -45.05097 33595 ft 505 kts 260°
2026-04-26 10:42 56.58927 -45.17642 33593 ft 505 kts 261°
2026-04-26 10:43 56.57650 -45.30190 33598 ft 506 kts 261°
2026-04-26 10:43 56.56363 -45.42751 33608 ft 506 kts 261°
2026-04-26 10:44 56.55060 -45.55325 33609 ft 507 kts 261°
2026-04-26 10:44 56.53753 -45.67800 33611 ft 507 kts 261°
2026-04-26 10:45 56.52425 -45.80334 33620 ft 506 kts 261°
2026-04-26 10:45 56.51085 -45.92851 33620 ft 506 kts 261°
2026-04-26 10:46 56.49731 -46.05349 33617 ft 505 kts 261°
2026-04-26 10:46 56.48366 -46.17826 33624 ft 505 kts 261°
2026-04-26 10:47 56.46996 -46.30275 33636 ft 505 kts 261°
2026-04-26 10:47 56.45613 -46.42716 33632 ft 505 kts 261°
2026-04-26 10:48 56.44211 -46.55177 33636 ft 506 kts 261°
2026-04-26 10:48 56.42793 -46.67674 33640 ft 508 kts 261°
2026-04-26 10:49 56.41362 -46.80174 33645 ft 509 kts 261°
2026-04-26 10:49 56.39923 -46.92615 33646 ft 510 kts 261°
2026-04-26 10:50 56.38695 -47.03125 33638 ft 510 kts 262°
2026-04-26 10:50 56.36971 -47.17673 33651 ft 511 kts 263°
2026-04-26 10:51 56.34728 -47.36534 33655 ft 513 kts 263°
2026-04-26 10:52 56.33214 -47.49120 33672 ft 514 kts 263°
2026-04-26 10:52 56.31683 -47.61708 33669 ft 514 kts 263°
2026-04-26 10:53 56.30136 -47.74291 33668 ft 515 kts 263°
2026-04-26 10:53 56.28573 -47.86872 33679 ft 515 kts 263°
2026-04-26 10:54 56.26215 -48.05682 33650 ft 517 kts 264°
2026-04-26 10:54 56.24612 -48.18298 33681 ft 519 kts 264°
2026-04-26 10:55 56.22994 -48.30968 33699 ft 521 kts 263°
2026-04-26 10:55 56.21626 -48.41604 33688 ft 523 kts 264°
2026-04-26 10:56 56.19968 -48.54365 33699 ft 525 kts 264°
2026-04-26 10:56 56.18303 -48.67066 33705 ft 527 kts 263°
2026-04-26 10:57 56.16606 -48.79896 33703 ft 528 kts 263°
2026-04-26 10:57 56.14895 -48.92715 33706 ft 528 kts 263°
2026-04-26 10:58 56.13171 -49.05512 33684 ft 528 kts 264°
2026-04-26 10:58 56.11430 -49.18292 33711 ft 528 kts 264°
2026-04-26 10:59 56.09679 -49.31107 33715 ft 530 kts 264°
2026-04-26 10:59 56.07912 -49.43945 33725 ft 531 kts 264°
2026-04-26 11:00 56.06123 -49.56802 33729 ft 532 kts 264°
2026-04-26 11:00 56.04319 -49.69649 33738 ft 533 kts 264°
2026-04-26 11:01 56.02509 -49.82436 33731 ft 534 kts 264°
2026-04-26 11:01 56.00673 -49.95319 33754 ft 535 kts 264°
2026-04-26 11:02 55.98364 -50.07924 33754 ft 540 kts 256°
2026-04-26 11:02 55.95170 -50.20304 33759 ft 553 kts 252°
2026-04-26 11:03 55.91874 -50.32678 33750 ft 551 kts 253°
2026-04-26 11:03 55.88782 -50.45149 33767 ft 548 kts 256°
2026-04-26 11:04 55.85865 -50.57680 33770 ft 548 kts 256°
2026-04-26 11:04 55.82900 -50.70175 33769 ft 549 kts 255°
2026-04-26 11:05 55.79834 -50.82624 33783 ft 549 kts 254°
2026-04-26 11:05 55.76732 -50.94976 33784 ft 551 kts 254°
2026-04-26 11:06 55.73590 -51.07415 33790 ft 553 kts 254°
2026-04-26 11:06 55.70436 -51.19884 33786 ft 554 kts 254°
2026-04-26 11:07 55.67269 -51.32358 33782 ft 555 kts 254°
2026-04-26 11:07 55.64113 -51.44718 33794 ft 554 kts 254°
2026-04-26 11:08 55.60928 -51.57117 33794 ft 553 kts 253°
2026-04-26 11:08 55.57732 -51.69489 33806 ft 552 kts 253°
2026-04-26 11:09 55.54530 -51.81822 33806 ft 552 kts 253°
2026-04-26 11:09 55.51311 -51.94158 33825 ft 554 kts 253°
2026-04-26 11:10 55.48072 -52.06498 33811 ft 553 kts 253°
2026-04-26 11:10 55.44847 -52.18709 33819 ft 552 kts 253°
2026-04-26 11:11 55.41597 -52.30952 33826 ft 552 kts 253°
2026-04-26 11:11 55.38336 -52.43173 33833 ft 552 kts 253°
2026-04-26 11:12 55.35057 -52.55412 33849 ft 554 kts 252°
2026-04-26 11:12 55.31753 -52.67668 33834 ft 555 kts 252°
2026-04-26 11:13 55.28429 -52.79923 33830 ft 555 kts 252°
2026-04-26 11:13 55.25101 -52.92110 33860 ft 553 kts 252°
2026-04-26 11:14 55.21772 -53.04249 33858 ft 552 kts 252°
2026-04-26 11:14 55.18456 -53.16291 33861 ft 553 kts 252°
2026-04-26 11:15 55.15100 -53.28413 33858 ft 555 kts 252°
2026-04-26 11:15 55.11721 -53.40552 33871 ft 555 kts 251°
2026-04-26 11:16 55.08320 -53.52706 33866 ft 557 kts 251°
2026-04-26 11:16 55.04903 -53.64853 33879 ft 559 kts 251°
2026-04-26 11:17 55.01459 -53.77025 33878 ft 560 kts 251°
2026-04-26 11:17 54.98001 -53.89183 33901 ft 559 kts 250°
2026-04-26 11:18 54.94545 -54.01273 33881 ft 558 kts 250°
2026-04-26 11:18 54.91074 -54.13348 33905 ft 557 kts 250°
2026-04-26 11:19 54.87620 -54.25306 33905 ft 557 kts 250°
2026-04-26 11:19 54.84128 -54.37333 33914 ft 557 kts 250°
2026-04-26 11:20 54.81222 -54.47300 33922 ft 558 kts 250°
2026-04-26 11:20 54.77108 -54.61342 33921 ft 559 kts 249°
2026-04-26 11:21 54.73569 -54.73349 33929 ft 560 kts 249°
2026-04-26 11:21 54.70030 -54.85292 33942 ft 561 kts 249°
2026-04-26 11:22 54.66453 -54.97300 33942 ft 562 kts 249°
2026-04-26 11:22 54.62856 -55.09323 33953 ft 563 kts 249°
2026-04-26 11:23 54.59244 -55.21330 33948 ft 564 kts 249°
2026-04-26 11:23 54.55615 -55.33328 33968 ft 565 kts 249°
2026-04-26 11:24 54.51975 -55.45306 33975 ft 565 kts 248°
2026-04-26 11:24 54.48316 -55.57289 33977 ft 565 kts 248°
2026-04-26 11:25 54.44644 -55.69252 33986 ft 566 kts 248°
2026-04-26 11:25 54.40952 -55.81218 33988 ft 567 kts 248°
2026-04-26 11:26 54.37250 -55.93159 33988 ft 567 kts 248°
2026-04-26 11:26 54.33552 -56.05031 33995 ft 568 kts 248°
2026-04-26 11:27 54.29819 -56.16952 33973 ft 568 kts 247°
2026-04-26 11:27 54.26086 -56.28816 34023 ft 566 kts 247°
2026-04-26 11:28 54.22343 -56.40649 34017 ft 565 kts 247°
2026-04-26 11:28 54.18597 -56.52439 34025 ft 564 kts 246°
2026-04-26 11:29 54.14841 -56.64200 34050 ft 564 kts 246°
2026-04-26 11:29 54.11095 -56.75874 34044 ft 565 kts 246°
2026-04-26 11:30 54.07929 -56.85701 34051 ft 565 kts 246°
2026-04-26 11:30 54.03515 -56.99339 34057 ft 566 kts 246°
2026-04-26 11:31 53.99599 -57.10949 34069 ft 567 kts 244°
2026-04-26 11:31 53.95528 -57.22444 34077 ft 568 kts 243°
2026-04-26 11:32 53.91436 -57.33917 34029 ft 569 kts 243°
2026-04-26 11:32 53.87370 -57.45383 34068 ft 565 kts 243°
2026-04-26 11:33 53.83363 -57.56721 34084 ft 563 kts 243°
2026-04-26 11:33 53.79326 -57.68081 34108 ft 562 kts 243°
2026-04-26 11:34 53.75283 -57.79389 34095 ft 562 kts 243°
2026-04-26 11:34 53.71228 -57.90673 34113 ft 562 kts 243°
2026-04-26 11:35 53.67163 -58.01933 34111 ft 561 kts 243°
2026-04-26 11:35 53.63781 -58.11257 34127 ft 560 kts 242°
2026-04-26 11:36 53.59013 -58.24351 34137 ft 561 kts 242°
2026-04-26 11:36 53.54909 -58.35569 34130 ft 564 kts 242°
2026-04-26 11:37 53.50778 -58.46810 34126 ft 565 kts 242°
2026-04-26 11:37 53.46647 -58.57992 34126 ft 559 kts 242°
2026-04-26 11:38 53.42537 -58.69073 34154 ft 560 kts 241°
2026-04-26 11:38 53.38432 -58.80099 34141 ft 563 kts 241°
2026-04-26 11:39 53.34261 -58.91249 34143 ft 566 kts 241°
2026-04-26 11:39 53.30076 -59.02387 34161 ft 565 kts 241°
2026-04-26 11:40 53.25893 -59.13466 34145 ft 561 kts 240°
2026-04-26 11:40 53.21704 -59.24513 34168 ft 565 kts 240°
2026-04-26 11:42 53.04789 -59.68639 34150 ft 561 kts 239°
2026-04-26 11:43 53.00564 -59.79541 34182 ft 561 kts 239°
2026-04-26 11:43 52.97031 -59.88623 34197 ft 563 kts 239°
2026-04-26 11:44 52.92784 -59.99498 34194 ft 560 kts 239°
2026-04-26 11:44 52.88548 -60.10299 34193 ft 564 kts 239°
2026-04-26 11:45 52.84265 -60.21168 34190 ft 562 kts 239°
2026-04-26 11:45 52.79981 -60.31994 34217 ft 563 kts 239°
2026-04-26 11:46 52.75683 -60.42813 34213 ft 565 kts 238°
2026-04-26 11:46 52.71367 -60.53631 34214 ft 564 kts 238°
2026-04-26 11:47 52.67045 -60.64412 34210 ft 563 kts 238°
2026-04-26 11:47 52.62714 -60.75177 34167 ft 560 kts 238°
2026-04-26 11:48 52.58417 -60.85810 34211 ft 559 kts 238°
2026-04-26 11:48 52.54083 -60.96487 34198 ft 561 kts 237°
2026-04-26 11:49 52.49739 -61.07147 34213 ft 563 kts 237°
2026-04-26 11:49 52.45409 -61.17729 34200 ft 562 kts 237°
2026-04-26 11:50 52.41042 -61.28354 34203 ft 560 kts 237°
2026-04-26 11:50 52.36678 -61.38929 34219 ft 562 kts 237°
2026-04-26 11:51 52.32300 -61.49494 34219 ft 561 kts 237°
2026-04-26 11:51 52.27909 -61.60050 34226 ft 562 kts 237°
2026-04-26 11:52 52.23508 -61.70585 34217 ft 562 kts 237°
2026-04-26 11:52 52.19107 -61.81076 34176 ft 558 kts 236°
2026-04-26 11:53 52.14709 -61.91516 34209 ft 559 kts 236°
2026-04-26 11:54 52.08084 -62.07164 34212 ft 561 kts 236°
2026-04-26 11:54 52.03651 -62.17582 34207 ft 558 kts 236°
2026-04-26 11:55 51.99207 -62.27977 34196 ft 562 kts 236°
2026-04-26 11:55 51.94771 -62.38325 34197 ft 561 kts 236°
2026-04-26 11:56 51.90315 -62.48673 34217 ft 559 kts 235°
2026-04-26 11:56 51.85852 -62.58992 34214 ft 559 kts 235°
2026-04-26 11:57 51.81377 -62.69297 34191 ft 560 kts 235°
2026-04-26 11:57 51.76890 -62.79589 34207 ft 560 kts 235°
2026-04-26 11:58 51.72404 -62.89841 34220 ft 558 kts 234°
2026-04-26 11:58 51.67921 -63.00043 34207 ft 557 kts 234°
2026-04-26 11:59 51.63438 -63.10205 34208 ft 557 kts 234°
2026-04-26 11:59 51.58934 -63.20373 34201 ft 559 kts 234°
2026-04-26 12:00 51.54443 -63.30475 34215 ft 556 kts 234°
2026-04-26 12:00 51.49939 -63.40568 34220 ft 558 kts 234°
2026-04-26 12:01 51.45420 -63.50654 34217 ft 557 kts 233°
2026-04-26 12:01 51.40885 -63.60733 34200 ft 558 kts 233°
2026-04-26 12:02 51.36329 -63.70822 34208 ft 558 kts 233°
2026-04-26 12:02 51.31778 -63.80863 34211 ft 558 kts 233°
2026-04-26 12:03 51.27223 -63.90871 34175 ft 554 kts 232°
2026-04-26 12:03 51.22736 -64.00695 34171 ft 550 kts 232°
2026-04-26 12:04 51.18211 -64.10558 34206 ft 552 kts 232°
2026-04-26 12:04 51.13675 -64.20412 34193 ft 550 kts 232°
2026-04-26 12:05 51.09152 -64.30202 34197 ft 548 kts 232°
2026-04-26 12:05 51.04631 -64.39944 34215 ft 548 kts 231°
2026-04-26 12:06 51.00082 -64.49710 34187 ft 551 kts 231°
2026-04-26 12:06 50.95509 -64.59501 34184 ft 551 kts 231°
2026-04-26 12:07 50.90986 -64.69155 34179 ft 545 kts 231°
2026-04-26 12:07 50.86478 -64.78734 34183 ft 540 kts 231°
2026-04-26 12:08 50.81972 -64.88266 34207 ft 539 kts 231°
2026-04-26 12:08 50.77462 -64.97770 34204 ft 541 kts 230°
2026-04-26 12:09 50.72950 -65.07250 34205 ft 540 kts 230°
2026-04-26 12:09 50.68435 -65.16702 34214 ft 541 kts 230°
2026-04-26 12:10 50.63918 -65.26122 34204 ft 541 kts 230°
2026-04-26 12:10 50.59355 -65.35605 34210 ft 543 kts 230°
2026-04-26 12:11 50.54799 -65.45047 34220 ft 543 kts 230°
2026-04-26 12:11 50.50208 -65.54512 34210 ft 546 kts 230°
2026-04-26 12:12 50.45604 -65.63977 34286 ft 543 kts 230°
2026-04-26 12:12 50.43314 -65.68677 34400 ft 541 kts 230°
2026-04-26 12:12 50.41030 -65.73352 34523 ft 540 kts 229°
2026-04-26 12:13 50.36460 -65.82680 34761 ft 539 kts 229°
2026-04-26 12:13 50.34169 -65.87342 34893 ft 539 kts 229°
2026-04-26 12:13 50.31884 -65.91985 35007 ft 538 kts 229°
2026-04-26 12:13 50.29600 -65.96618 35130 ft 537 kts 229°
2026-04-26 12:14 50.27312 -66.01250 35257 ft 536 kts 229°
2026-04-26 12:14 50.25033 -66.05858 35361 ft 535 kts 229°
2026-04-26 12:14 50.22789 -66.10389 35500 ft 533 kts 229°
2026-04-26 12:14 50.20524 -66.14953 35628 ft 530 kts 229°
2026-04-26 12:15 50.18264 -66.19497 35735 ft 528 kts 229°
2026-04-26 12:15 50.16015 -66.24012 35869 ft 526 kts 229°
2026-04-26 12:15 50.13772 -66.28505 35993 ft 524 kts 229°
2026-04-26 12:16 50.09300 -66.37441 36148 ft 522 kts 229°
2026-04-26 12:16 50.04833 -66.46339 36185 ft 520 kts 230°
2026-04-26 12:17 50.00390 -66.55163 36178 ft 517 kts 229°
2026-04-26 12:17 49.95961 -66.63931 36168 ft 515 kts 229°
2026-04-26 12:18 49.91535 -66.72665 36191 ft 514 kts 229°
2026-04-26 12:18 49.87135 -66.81307 36185 ft 514 kts 229°
2026-04-26 12:19 49.82694 -66.90006 36195 ft 515 kts 229°
2026-04-26 12:19 49.78233 -66.98718 36197 ft 516 kts 229°
2026-04-26 12:20 49.73759 -67.07430 36213 ft 517 kts 229°
2026-04-26 12:20 49.69269 -67.16137 36204 ft 519 kts 229°
2026-04-26 12:21 49.64765 -67.24846 36208 ft 520 kts 229°
2026-04-26 12:21 49.60243 -67.33562 36206 ft 520 kts 229°
2026-04-26 12:22 49.55712 -67.42267 36215 ft 520 kts 229°
2026-04-26 12:22 49.51182 -67.50939 36193 ft 519 kts 228°
2026-04-26 12:23 49.46686 -67.59519 36203 ft 517 kts 228°
2026-04-26 12:23 49.42182 -67.68090 36209 ft 514 kts 228°
2026-04-26 12:24 49.37683 -67.76616 36228 ft 512 kts 228°
2026-04-26 12:24 49.33201 -67.85086 36210 ft 510 kts 228°
2026-04-26 12:25 49.26497 -67.97710 36215 ft 508 kts 228°
2026-04-26 12:25 49.22030 -68.06088 36222 ft 508 kts 228°
2026-04-26 12:26 49.17550 -68.14463 36230 ft 508 kts 228°
2026-04-26 12:26 49.13187 -68.22872 36228 ft 509 kts 232°
2026-04-26 12:27 49.09397 -68.32024 36230 ft 511 kts 239°
2026-04-26 12:27 49.06139 -68.41679 36226 ft 512 kts 243°
2026-04-26 12:28 49.03077 -68.51486 36217 ft 512 kts 242°
2026-04-26 12:28 48.99868 -68.61178 36217 ft 512 kts 240°
2026-04-26 12:29 48.96516 -68.70744 36222 ft 512 kts 239°
2026-04-26 12:30 48.91436 -68.84984 36221 ft 513 kts 239°
2026-04-26 12:30 48.88047 -68.94509 36223 ft 511 kts 240°
2026-04-26 12:31 48.83037 -69.08594 36219 ft 500 kts 240°
2026-04-26 12:31 48.79719 -69.17875 36219 ft 500 kts 240°
2026-04-26 12:32 48.76950 -69.25584 36223 ft 500 kts 239°
2026-04-26 12:33 48.71943 -69.39462 36224 ft 500 kts 240°
2026-04-26 12:33 48.68599 -69.48699 36221 ft 499 kts 240°
2026-04-26 12:34 48.65271 -69.57863 36230 ft 499 kts 240°
2026-04-26 12:34 48.61922 -69.67047 36226 ft 498 kts 240°
2026-04-26 12:35 48.58569 -69.76212 36236 ft 497 kts 240°
2026-04-26 12:35 48.55222 -69.85331 36226 ft 496 kts 240°
2026-04-26 12:36 48.51877 -69.94413 36229 ft 494 kts 240°
2026-04-26 12:36 48.48526 -70.03463 36227 ft 494 kts 240°
2026-04-26 12:37 48.45172 -70.12490 36229 ft 493 kts 240°
2026-04-26 12:37 48.41815 -70.21488 36214 ft 492 kts 240°
2026-04-26 12:38 48.38489 -70.30386 36220 ft 490 kts 240°
2026-04-26 12:38 48.35144 -70.39312 36228 ft 489 kts 240°
2026-04-26 12:39 48.31798 -70.48212 36232 ft 489 kts 240°
2026-04-26 12:39 48.28446 -70.57088 36255 ft 488 kts 241°
2026-04-26 12:40 48.25089 -70.65939 36235 ft 487 kts 241°
2026-04-26 12:40 48.21739 -70.74756 36237 ft 486 kts 241°
2026-04-26 12:41 48.18405 -70.83507 36236 ft 485 kts 241°
2026-04-26 12:41 48.15051 -70.92273 36238 ft 485 kts 241°
2026-04-26 12:42 48.11692 -71.01019 36229 ft 483 kts 242°
2026-04-26 12:42 48.08339 -71.09726 36227 ft 482 kts 242°
2026-04-26 12:43 48.04995 -71.18394 36207 ft 481 kts 241°
2026-04-26 12:43 48.01638 -71.27058 36209 ft 480 kts 241°
2026-04-26 12:44 47.98168 -71.35511 36213 ft 480 kts 239°
2026-04-26 12:44 47.94532 -71.43859 36219 ft 479 kts 238°
2026-04-26 12:45 47.90891 -71.52191 36200 ft 479 kts 239°
2026-04-26 12:45 47.87276 -71.60547 36218 ft 478 kts 239°
2026-04-26 12:46 47.83683 -71.68885 36227 ft 479 kts 239°
2026-04-26 12:46 47.80108 -71.77165 36224 ft 479 kts 239°
2026-04-26 12:47 47.76494 -71.85498 36229 ft 479 kts 239°
2026-04-26 12:47 47.72866 -71.93830 36227 ft 480 kts 238°
2026-04-26 12:48 47.69230 -72.02153 36233 ft 480 kts 238°
2026-04-26 12:48 47.65582 -72.10481 36225 ft 481 kts 238°
2026-04-26 12:49 47.61926 -72.18810 36233 ft 481 kts 238°
2026-04-26 12:49 47.58266 -72.27114 36237 ft 482 kts 238°
2026-04-26 12:50 47.54615 -72.35368 36236 ft 482 kts 238°
2026-04-26 12:50 47.50939 -72.43656 36236 ft 482 kts 238°
2026-04-26 12:51 47.47253 -72.51943 36238 ft 482 kts 238°
2026-04-26 12:51 47.43567 -72.60208 36250 ft 482 kts 238°
2026-04-26 12:52 47.39872 -72.68465 36250 ft 481 kts 237°
2026-04-26 12:52 47.36179 -72.76695 36249 ft 481 kts 237°
2026-04-26 12:53 47.32468 -72.84943 36240 ft 481 kts 237°
2026-04-26 12:53 47.28762 -72.93154 36253 ft 481 kts 237°
2026-04-26 12:54 47.25047 -73.01355 36242 ft 481 kts 237°
2026-04-26 12:54 47.21350 -73.09494 36249 ft 481 kts 237°
2026-04-26 12:55 47.17626 -73.17669 36243 ft 481 kts 237°
2026-04-26 12:55 47.13889 -73.25852 36249 ft 481 kts 237°
2026-04-26 12:56 47.10149 -73.34015 36247 ft 482 kts 236°
2026-04-26 12:56 47.06400 -73.42172 36246 ft 482 kts 236°
2026-04-26 12:57 47.02648 -73.50310 36241 ft 482 kts 236°
2026-04-26 12:57 46.98893 -73.58434 36237 ft 482 kts 236°
2026-04-26 12:58 46.93249 -73.70599 36240 ft 481 kts 236°
2026-04-26 12:58 46.89479 -73.78695 36235 ft 481 kts 236°
2026-04-26 12:59 46.85730 -73.86725 36234 ft 481 kts 236°
2026-04-26 12:59 46.81949 -73.94802 36228 ft 481 kts 236°
2026-04-26 13:00 46.78159 -74.02848 36233 ft 481 kts 235°
2026-04-26 13:00 46.74034 -74.10518 36233 ft 480 kts 230°
2026-04-26 13:01 46.69630 -74.17844 36231 ft 481 kts 229°
2026-04-26 13:01 46.65212 -74.25159 36228 ft 481 kts 230°
2026-04-26 13:02 46.60839 -74.32545 36223 ft 481 kts 230°
2026-04-26 13:02 46.56520 -74.39913 36224 ft 482 kts 230°
2026-04-26 13:03 46.52172 -74.47323 36223 ft 482 kts 230°
2026-04-26 13:03 46.47816 -74.54715 36216 ft 482 kts 230°
2026-04-26 13:04 46.43444 -74.62103 36221 ft 482 kts 230°
2026-04-26 13:04 46.39065 -74.69482 36216 ft 483 kts 230°
2026-04-26 13:05 46.34677 -74.76856 36210 ft 483 kts 230°
2026-04-26 13:05 46.30280 -74.84226 36216 ft 484 kts 230°
2026-04-26 13:06 46.25870 -74.91599 36217 ft 484 kts 230°
2026-04-26 13:06 46.21485 -74.98910 36216 ft 484 kts 230°
2026-04-26 13:07 46.17068 -75.06255 36216 ft 484 kts 230°
2026-04-26 13:07 46.12646 -75.13588 36215 ft 484 kts 230°
2026-04-26 13:08 46.08253 -75.20852 36212 ft 484 kts 230°
2026-04-26 13:08 46.03824 -75.28160 36212 ft 484 kts 230°
2026-04-26 13:09 45.99396 -75.35447 36209 ft 484 kts 230°
2026-04-26 13:09 45.94962 -75.42722 36213 ft 484 kts 230°
2026-04-26 13:10 45.90525 -75.49986 36214 ft 484 kts 230°
2026-04-26 13:10 45.86079 -75.57244 36214 ft 484 kts 230°
2026-04-26 13:11 45.81621 -75.64502 36217 ft 484 kts 230°
2026-04-26 13:11 45.77165 -75.71738 36217 ft 484 kts 230°
2026-04-26 13:12 45.72702 -75.78958 36219 ft 484 kts 230°
2026-04-26 13:12 45.68264 -75.86128 36216 ft 484 kts 231°
2026-04-26 13:13 45.63794 -75.93333 36218 ft 484 kts 230°
2026-04-26 13:13 45.59317 -76.00529 36226 ft 484 kts 230°
2026-04-26 13:14 45.54835 -76.07715 36220 ft 485 kts 230°
2026-04-26 13:14 45.50345 -76.14892 36217 ft 484 kts 231°
2026-04-26 13:15 45.45855 -76.22052 36223 ft 485 kts 231°
2026-04-26 13:15 45.42123 -76.27994 36229 ft 484 kts 231°
2026-04-26 13:16 45.36813 -76.36252 36212 ft 481 kts 227°
2026-04-26 13:16 45.31858 -76.42687 36244 ft 484 kts 225°
2026-04-26 13:17 45.24364 -76.52342 36234 ft 488 kts 227°
2026-04-26 13:18 45.17029 -76.62391 36220 ft 490 kts 227°
2026-04-26 13:19 45.09605 -76.72328 36225 ft 489 kts 226°
2026-04-26 13:19 45.04635 -76.78867 36224 ft 487 kts 226°
2026-04-26 13:20 44.99670 -76.85378 36218 ft 486 kts 226°
2026-04-26 13:20 44.95546 -76.90781 36219 ft 485 kts 226°
2026-04-26 13:21 44.90604 -76.97248 36217 ft 484 kts 226°
2026-04-26 13:21 44.85674 -77.03689 36225 ft 483 kts 226°
2026-04-26 13:22 44.80740 -77.10118 36224 ft 482 kts 226°
2026-04-26 13:22 44.75816 -77.16516 36227 ft 482 kts 226°
2026-04-26 13:23 44.70882 -77.22914 36229 ft 482 kts 226°
2026-04-26 13:23 44.65944 -77.29298 36220 ft 482 kts 226°
2026-04-26 13:24 44.61005 -77.35670 36224 ft 483 kts 226°
2026-04-26 13:24 44.56081 -77.42007 36229 ft 483 kts 226°
2026-04-26 13:25 44.51125 -77.48368 36229 ft 483 kts 226°
2026-04-26 13:25 44.46169 -77.54717 36213 ft 483 kts 226°
2026-04-26 13:26 44.41205 -77.61060 36217 ft 483 kts 226°
2026-04-26 13:26 44.36238 -77.67389 36227 ft 483 kts 226°
2026-04-26 13:27 44.31264 -77.73712 36217 ft 484 kts 226°
2026-04-26 13:27 44.26280 -77.80033 36238 ft 483 kts 226°
2026-04-26 13:28 44.21327 -77.86302 36223 ft 484 kts 226°
2026-04-26 13:28 44.16305 -77.92640 36228 ft 484 kts 226°
2026-04-26 13:29 44.11341 -77.98893 36229 ft 484 kts 225°
2026-04-26 13:29 44.06340 -78.05177 36227 ft 484 kts 225°
2026-04-26 13:30 44.01331 -78.11455 36230 ft 484 kts 225°
2026-04-26 13:30 43.96323 -78.17716 36219 ft 485 kts 225°
2026-04-26 13:31 43.91306 -78.23974 36225 ft 485 kts 225°
2026-04-26 13:31 43.86291 -78.30216 36221 ft 485 kts 225°
2026-04-26 13:32 43.81267 -78.36454 36223 ft 485 kts 225°
2026-04-26 13:32 43.76237 -78.42684 36224 ft 485 kts 225°
2026-04-26 13:33 43.71240 -78.48860 36223 ft 485 kts 225°
2026-04-26 13:33 43.66212 -78.55059 36229 ft 485 kts 225°
2026-04-26 13:34 43.61171 -78.61261 36224 ft 484 kts 225°
2026-04-26 13:34 43.56139 -78.67438 36226 ft 484 kts 225°
2026-04-26 13:35 43.51103 -78.73606 36248 ft 484 kts 225°
2026-04-26 13:35 43.46311 -78.80010 36230 ft 479 kts 232°
2026-04-26 13:36 43.42101 -78.87087 36238 ft 477 kts 236°
2026-04-26 13:36 43.38059 -78.94328 36235 ft 478 kts 236°
2026-04-26 13:37 43.33929 -79.01509 36244 ft 479 kts 234°
2026-04-26 13:37 43.29718 -79.08600 36229 ft 479 kts 234°
2026-04-26 13:38 43.25500 -79.15611 36240 ft 478 kts 234°
2026-04-26 13:38 43.21265 -79.22642 36251 ft 478 kts 234°
2026-04-26 13:39 43.17032 -79.29673 36247 ft 478 kts 234°
2026-04-26 13:39 43.12802 -79.36690 36241 ft 477 kts 234°
2026-04-26 13:40 43.08565 -79.43702 36229 ft 477 kts 234°
2026-04-26 13:40 43.04331 -79.50689 36236 ft 476 kts 234°
2026-04-26 13:41 43.00097 -79.57660 36229 ft 476 kts 234°
2026-04-26 13:41 42.95867 -79.64608 36221 ft 476 kts 234°
2026-04-26 13:42 42.91634 -79.71546 36231 ft 475 kts 234°
2026-04-26 13:42 42.87425 -79.78426 36223 ft 475 kts 234°
2026-04-26 13:43 42.83182 -79.85347 36219 ft 475 kts 234°
2026-04-26 13:43 42.78943 -79.92244 36222 ft 475 kts 234°
2026-04-26 13:44 42.74700 -79.99131 36213 ft 475 kts 233°
2026-04-26 13:44 42.70452 -80.06012 36220 ft 475 kts 233°
2026-04-26 13:45 42.66199 -80.12884 36216 ft 475 kts 233°
2026-04-26 13:45 42.61943 -80.19745 36211 ft 475 kts 233°
2026-04-26 13:46 42.57682 -80.26599 36212 ft 475 kts 233°
2026-04-26 13:46 42.53444 -80.33398 36218 ft 475 kts 233°
2026-04-26 13:47 42.49169 -80.40241 36219 ft 475 kts 233°
2026-04-26 13:47 42.44889 -80.47077 36218 ft 476 kts 233°
2026-04-26 13:48 42.40603 -80.53907 36215 ft 476 kts 233°
2026-04-26 13:48 42.36318 -80.60718 36209 ft 475 kts 233°
2026-04-26 13:49 42.32024 -80.67529 36214 ft 475 kts 233°
2026-04-26 13:49 42.27739 -80.74310 36217 ft 474 kts 233°
2026-04-26 13:50 42.23453 -80.81076 36204 ft 474 kts 233°
2026-04-26 13:50 42.19163 -80.87835 36227 ft 474 kts 233°
2026-04-26 13:51 42.14901 -80.94535 36216 ft 474 kts 232°
2026-04-26 13:51 42.10609 -81.01265 36217 ft 473 kts 232°
2026-04-26 13:52 42.06316 -81.07981 36221 ft 473 kts 232°
2026-04-26 13:52 42.02023 -81.14682 36215 ft 473 kts 232°
2026-04-26 13:53 41.97728 -81.21371 36218 ft 473 kts 232°
2026-04-26 13:53 41.93421 -81.28064 36211 ft 473 kts 232°
2026-04-26 13:54 41.89145 -81.34695 36208 ft 472 kts 232°
2026-04-26 13:54 41.84838 -81.41358 36200 ft 472 kts 232°
2026-04-26 13:55 41.79105 -81.50204 36203 ft 472 kts 232°
2026-04-26 13:56 41.71902 -81.61282 36191 ft 472 kts 232°
2026-04-26 13:56 41.67578 -81.67911 36170 ft 472 kts 232°
2026-04-26 13:57 41.63257 -81.74524 36192 ft 472 kts 232°
2026-04-26 13:57 41.58954 -81.81092 36186 ft 472 kts 232°
2026-04-26 13:58 41.54622 -81.87690 36187 ft 473 kts 232°
2026-04-26 13:58 41.50285 -81.94283 36190 ft 473 kts 232°
2026-04-26 13:59 41.45934 -82.00881 36165 ft 473 kts 232°
2026-04-26 13:59 41.41582 -82.07469 36195 ft 473 kts 232°
2026-04-26 14:00 41.33131 -82.20753 36208 ft 468 kts 236°
2026-04-26 14:01 41.29242 -82.27739 36190 ft 470 kts 237°
2026-04-26 14:01 41.25317 -82.34765 36206 ft 479 kts 236°
2026-04-26 14:02 41.21252 -82.41947 36193 ft 491 kts 236°
2026-04-26 14:02 41.17117 -82.49201 36188 ft 493 kts 236°
2026-04-26 14:03 41.12998 -82.56409 36183 ft 493 kts 236°
2026-04-26 14:03 41.08862 -82.63642 36174 ft 492 kts 236°
2026-04-26 14:04 41.04735 -82.70848 36180 ft 490 kts 236°
2026-04-26 14:04 41.00614 -82.78030 36181 ft 488 kts 235°
2026-04-26 14:05 40.96503 -82.85177 36182 ft 488 kts 235°
2026-04-26 14:05 40.92388 -82.92313 36176 ft 487 kts 235°
2026-04-26 14:06 40.88275 -82.99429 36185 ft 487 kts 235°
2026-04-26 14:06 40.84157 -83.06539 36180 ft 487 kts 235°
2026-04-26 14:07 40.80024 -83.13656 36185 ft 488 kts 235°
2026-04-26 14:07 40.75886 -83.20766 36165 ft 489 kts 235°
2026-04-26 14:08 40.71764 -83.27836 36173 ft 489 kts 235°
2026-04-26 14:08 40.67581 -83.34915 36169 ft 490 kts 234°
2026-04-26 14:09 40.63267 -83.41873 36177 ft 490 kts 233°
2026-04-26 14:09 40.58916 -83.48793 36168 ft 491 kts 233°
2026-04-26 14:10 40.55305 -83.54561 36154 ft 491 kts 233°
2026-04-26 14:10 40.50271 -83.62633 36164 ft 491 kts 233°
2026-04-26 14:11 40.44477 -83.71919 36160 ft 491 kts 233°
2026-04-26 14:11 40.40139 -83.78847 36156 ft 492 kts 233°
2026-04-26 14:12 40.35786 -83.85780 36158 ft 492 kts 233°
2026-04-26 14:12 40.31459 -83.92653 36134 ft 492 kts 233°
2026-04-26 14:13 40.24920 -84.03013 36164 ft 492 kts 233°
2026-04-26 14:14 40.20555 -84.09913 36133 ft 492 kts 233°
2026-04-26 14:14 40.16185 -84.16805 36157 ft 492 kts 233°
2026-04-26 14:15 40.11800 -84.23706 36147 ft 493 kts 233°
2026-04-26 14:15 40.07418 -84.30585 36143 ft 493 kts 234°
2026-04-26 14:16 40.03051 -84.37430 36150 ft 493 kts 234°
2026-04-26 14:16 39.98970 -84.44572 36131 ft 488 kts 240°
2026-04-26 14:17 39.95519 -84.52166 36142 ft 487 kts 244°
2026-04-26 14:17 39.92195 -84.59887 36145 ft 489 kts 244°
2026-04-26 14:18 39.88768 -84.67556 36126 ft 490 kts 243°
2026-04-26 14:18 39.85251 -84.75160 36147 ft 490 kts 242°
2026-04-26 14:19 39.81706 -84.82740 36160 ft 490 kts 242°
2026-04-26 14:19 39.78163 -84.90314 36156 ft 490 kts 242°
2026-04-26 14:20 39.74643 -84.97843 36154 ft 490 kts 242°
2026-04-26 14:20 39.71104 -85.05404 36136 ft 489 kts 243°
2026-04-26 14:21 39.67562 -85.12950 36124 ft 488 kts 243°
2026-04-26 14:21 39.64021 -85.20475 36120 ft 487 kts 243°
2026-04-26 14:22 39.60508 -85.27924 36108 ft 487 kts 243°
2026-04-26 14:22 39.56972 -85.35405 36120 ft 487 kts 242°
2026-04-26 14:23 39.53430 -85.42878 36110 ft 487 kts 242°
2026-04-26 14:23 39.49885 -85.50339 36116 ft 486 kts 242°
2026-04-26 14:24 39.46340 -85.57781 36128 ft 485 kts 243°
2026-04-26 14:24 39.42798 -85.65203 36112 ft 484 kts 243°
2026-04-26 14:25 39.39254 -85.72612 36104 ft 484 kts 242°
2026-04-26 14:25 39.35706 -85.80012 36121 ft 484 kts 242°
2026-04-26 14:26 39.32173 -85.87363 36134 ft 484 kts 242°
2026-04-26 14:26 39.28616 -85.94747 36141 ft 484 kts 242°
2026-04-26 14:27 39.25053 -86.02123 36132 ft 484 kts 242°
2026-04-26 14:27 39.21479 -86.09507 36121 ft 484 kts 242°
2026-04-26 14:28 39.17902 -86.16882 36113 ft 484 kts 242°
2026-04-26 14:28 39.14347 -86.24188 36094 ft 484 kts 243°
2026-04-26 14:29 39.10771 -86.31525 36103 ft 483 kts 243°
2026-04-26 14:29 39.07195 -86.38848 36094 ft 483 kts 243°
2026-04-26 14:30 39.03621 -86.46147 36091 ft 482 kts 243°
2026-04-26 14:30 39.00042 -86.53439 36098 ft 481 kts 243°
2026-04-26 14:31 38.96469 -86.60705 36097 ft 481 kts 243°
2026-04-26 14:31 38.92894 -86.67955 36101 ft 480 kts 243°
2026-04-26 14:32 38.89320 -86.75192 36098 ft 480 kts 243°
2026-04-26 14:32 38.85762 -86.82378 36070 ft 480 kts 243°
2026-04-26 14:33 38.82180 -86.89592 36073 ft 478 kts 243°
2026-04-26 14:33 38.78608 -86.96774 36070 ft 477 kts 243°
2026-04-26 14:34 38.75035 -87.03940 36082 ft 475 kts 243°
2026-04-26 14:34 38.71478 -87.11065 36089 ft 474 kts 243°
2026-04-26 14:35 38.67930 -87.18156 36082 ft 473 kts 243°
2026-04-26 14:35 38.64427 -87.25156 36065 ft 472 kts 243°